DL9BGG-13 Weather Reports


time (UTC)temp
C
wind
direction
speed
KPH
gust
KPH
rain 1hr
cm
rain 24hr
cm
rain mn
cm
humidity
%
barometer
mb
20260507162044 14 45 9.7 0.0 0.00 0.00 0.00 67 1062.3
20260507161929 14 0 6.4 0.0 0.00 0.00 0.00 67 1062.2
20260507161810 14 0 0.0 0.0 0.00 0.00 0.00 67 1062.2
20260507161704 14 45 6.4 0.0 0.00 0.00 0.00 67 1062.2
20260507161601 14 0 0.0 0.0 0.00 0.00 0.00 66 1062.2
20260507161453 14 45 12.9 0.0 0.00 0.00 0.00 66 1062.2
20260507161340 14 45 9.7 0.0 0.00 0.00 0.00 66 1062.2
20260507161235 14 45 6.4 0.0 0.00 0.00 0.00 66 1062.2
20260507161124 14 45 8.0 0.0 0.00 0.00 0.00 66 1062.2
20260507161020 14 0 8.0 0.0 0.00 0.00 0.00 66 1062.2
20260507160858 15 0 9.7 0.0 0.00 0.00 0.00 66 1062.2
20260507160750 15 337 8.0 0.0 0.00 0.00 0.00 65 1062.3
20260507160630 15 0 11.3 0.0 0.00 0.00 0.00 64 1062.2
20260507160516 15 22 8.0 0.0 0.00 0.00 0.00 63 1062.2
20260507160355 15 45 19.3 0.0 0.00 0.00 0.00 63 1062.3
20260507160250 15 0 20.9 0.0 0.00 0.00 0.00 64 1062.2
20260507160129 15 22 9.7 0.0 0.00 0.00 0.00 64 1062.2
20260507160015 15 0 0.0 0.0 0.00 0.00 0.00 64 1062.2
20260507155902 15 22 0.0 0.0 0.00 0.00 0.00 64 1062.2
20260507155749 15 0 8.0 0.0 0.00 0.00 0.00 64 1062.2
20260507155636 15 45 9.7 0.0 0.00 0.00 0.00 64 1062.3
20260507155523 15 22 4.8 0.0 0.00 0.00 0.00 64 1062.3
20260507155401 15 22 9.7 0.0 0.00 0.00 0.00 63 1062.2
20260507155241 15 45 4.8 0.0 0.00 0.00 0.00 62 1062.3
20260507155138 15 22 6.4 0.0 0.00 0.00 0.00 64 1062.1
20260507155030 15 45 9.7 0.0 0.00 0.00 0.00 64 1062.3
20260507154909 15 45 6.4 0.0 0.00 0.00 0.00 63 1062.3
20260507154748 15 45 12.9 0.0 0.00 0.00 0.00 64 1062.2
20260507154634 15 0 8.0 0.0 0.00 0.00 0.00 64 1062.3
20260507154514 15 22 8.0 0.0 0.00 0.00 0.00 65 1062.2
20260507154408 15 22 4.8 0.0 0.00 0.00 0.00 64 1062.2
20260507154247 15 45 12.9 0.0 0.00 0.00 0.00 64 1062.2
20260507154119 15 315 4.8 0.0 0.00 0.00 0.00 64 1062.2
20260507154013 15 22 11.3 0.0 0.00 0.00 0.00 63 1062.2
20260507153908 15 22 8.0 0.0 0.00 0.00 0.00 63 1062.1
20260507153755 15 22 9.7 0.0 0.00 0.00 0.00 63 1062.1
20260507153650 15 45 9.7 0.0 0.00 0.00 0.00 63 1062.1
20260507153537 15 22 11.3 0.0 0.00 0.00 0.00 63 1062.3
20260507153420 15 22 12.9 0.0 0.00 0.00 0.00 63 1062.2
20260507153303 15 0 9.7 0.0 0.00 0.00 0.00 63 1062.2
20260507153157 15 45 11.3 0.0 0.00 0.00 0.00 63 1062.3
20260507153036 15 22 0.0 0.0 0.00 0.00 0.00 63 1062.2
20260507152923 15 22 17.7 0.0 0.00 0.00 0.00 63 1062.2
20260507152803 15 337 24.1 0.0 0.00 0.00 0.00 64 1062.3
20260507152640 15 22 6.4 0.0 0.00 0.00 0.00 64 1062.3
20260507152527 15 22 0.0 0.0 0.00 0.00 0.00 63 1062.2
20260507152423 15 67 14.5 0.0 0.00 0.00 0.00 63 1062.3
20260507152317 15 45 19.3 0.0 0.00 0.00 0.00 63 1062.2
20260507152156 15 22 4.8 0.0 0.00 0.00 0.00 63 1062.2
20260507152052 15 45 0.0 0.0 0.00 0.00 0.00 63 1062.2
20260507151946 15 22 9.7 0.0 0.00 0.00 0.00 63 1062.2
20260507151825 15 0 9.7 0.0 0.00 0.00 0.00 63 1062.2
20260507151720 15 22 4.8 0.0 0.00 0.00 0.00 63 1062.2
20260507151606 15 22 9.7 0.0 0.00 0.00 0.00 63 1062.1
20260507151453 15 22 11.3 0.0 0.00 0.00 0.00 63 1062.2
20260507151333 15 22 1.6 0.0 0.00 0.00 0.00 63 1062.2
20260507151227 15 22 9.7 0.0 0.00 0.00 0.00 63 1062.2
20260507151123 15 45 14.5 0.0 0.00 0.00 0.00 63 1062.3
20260507151018 16 22 11.3 0.0 0.00 0.00 0.00 62 1062.2
20260507150906 16 22 9.7 0.0 0.00 0.00 0.00 63 1062.2
20260507150758 16 22 8.0 0.0 0.00 0.00 0.00 63 1062.2
20260507150638 16 45 0.0 0.0 0.00 0.00 0.00 62 1062.2
20260507150525 16 67 16.1 0.0 0.00 0.00 0.00 63 1062.2
20260507150420 16 22 11.3 0.0 0.00 0.00 0.00 63 1062.0
20260507150309 15 0 11.3 0.0 0.00 0.00 0.00 63 1062.1
20260507150202 15 0 11.3 0.0 0.00 0.00 0.00 63 1062.1
20260507150040 15 45 9.7 0.0 0.00 0.00 0.00 61 1062.1
20260507145927 15 22 14.5 0.0 0.00 0.00 0.00 62 1062.2
20260507145758 15 0 11.3 0.0 0.00 0.00 0.00 63 1062.0
20260507145644 15 22 11.3 0.0 0.00 0.00 0.00 63 1062.1
20260507145534 15 22 9.7 0.0 0.00 0.00 0.00 63 1062.1
20260507145420 15 90 14.5 0.0 0.00 0.00 0.00 62 1062.1
20260507145314 16 45 19.3 0.0 0.00 0.00 0.00 61 1062.1
20260507145209 16 22 4.8 0.0 0.00 0.00 0.00 62 1062.1
20260507145055 16 22 12.9 0.0 0.00 0.00 0.00 62 1062.1
20260507144942 16 22 12.9 0.0 0.00 0.00 0.00 62 1062.0
20260507144837 16 0 8.0 0.0 0.00 0.00 0.00 63 1062.1
20260507144724 15 22 9.7 0.0 0.00 0.00 0.00 63 1062.0
20260507144603 16 0 8.0 0.0 0.00 0.00 0.00 62 1062.0
20260507144452 15 90 14.5 0.0 0.00 0.00 0.00 64 1062.1
20260507144345 15 22 14.5 0.0 0.00 0.00 0.00 64 1062.0
20260507144240 15 45 11.3 0.0 0.00 0.00 0.00 64 1062.0
20260507144119 15 67 9.7 0.0 0.00 0.00 0.00 64 1062.0
20260507144008 15 337 9.7 0.0 0.00 0.00 0.00 63 1062.0
20260507143902 15 0 12.9 0.0 0.00 0.00 0.00 63 1062.0
20260507143755 15 22 9.7 0.0 0.00 0.00 0.00 64 1062.1
20260507143643 15 0 9.7 0.0 0.00 0.00 0.00 63 1062.1
20260507143537 15 0 9.7 0.0 0.00 0.00 0.00 62 1062.1
20260507143432 15 0 11.3 0.0 0.00 0.00 0.00 62 1062.1
20260507143319 16 22 9.7 0.0 0.00 0.00 0.00 62 1062.1
20260507143158 15 0 14.5 0.0 0.00 0.00 0.00 62 1062.1
20260507143045 15 22 6.4 0.0 0.00 0.00 0.00 63 1062.0
20260507142941 15 22 9.7 0.0 0.00 0.00 0.00 63 1062.0
20260507142835 15 22 9.7 0.0 0.00 0.00 0.00 63 1062.2
20260507142729 15 0 9.7 0.0 0.00 0.00 0.00 63 1062.1
20260507142616 15 0 14.5 0.0 0.00 0.00 0.00 63 1062.1
20260507142455 15 45 9.7 0.0 0.00 0.00 0.00 63 1062.2
20260507142341 15 22 0.0 0.0 0.00 0.00 0.00 63 1062.2
20260507142221 15 22 11.3 0.0 0.00 0.00 0.00 63 1062.2
20260507142108 15 22 24.1 0.0 0.00 0.00 0.00 64 1062.1
20260507141955 15 45 14.5 0.0 0.00 0.00 0.00 63 1062.1
20260507141850 15 337 11.3 0.0 0.00 0.00 0.00 63 1062.1
20260507141739 15 22 9.7 0.0 0.00 0.00 0.00 64 1062.1
20260507141631 15 22 11.3 0.0 0.00 0.00 0.00 65 1062.1
20260507141512 15 45 9.7 0.0 0.00 0.00 0.00 64 1062.2
20260507141406 15 0 11.3 0.0 0.00 0.00 0.00 65 1062.1
20260507141302 15 0 8.0 0.0 0.00 0.00 0.00 65 1062.2
20260507141155 15 22 19.3 0.0 0.00 0.00 0.00 65 1062.1
20260507141049 15 22 11.3 0.0 0.00 0.00 0.00 65 1062.1
20260507140935 15 22 12.9 0.0 0.00 0.00 0.00 65 1062.1
20260507140830 15 45 6.4 0.0 0.00 0.00 0.00 66 1062.1
20260507140718 15 45 17.7 0.0 0.00 0.00 0.00 67 1062.1
20260507140603 15 22 11.3 0.0 0.00 0.00 0.00 66 1062.1
20260507140450 15 0 9.7 0.0 0.00 0.00 0.00 66 1062.2
20260507140337 14 0 9.7 0.0 0.00 0.00 0.00 66 1062.2
20260507140233 15 67 12.9 0.0 0.00 0.00 0.00 66 1062.2
20260507140127 14 45 19.3 0.0 0.00 0.00 0.00 68 1062.2
20260507140014 14 45 19.3 0.0 0.00 0.00 0.00 68 1062.2
20260507135901 14 45 9.7 0.0 0.00 0.00 0.00 68 1062.2
20260507135750 14 22 0.0 0.0 0.00 0.00 0.00 69 1062.2
20260507135645 14 22 0.0 0.0 0.00 0.00 0.00 68 1062.1
20260507135538 13 45 12.9 0.0 0.00 0.00 0.00 69 1062.2
20260507135425 13 22 8.0 0.0 0.00 0.00 0.00 69 1062.2
20260507135320 13 0 11.3 0.0 0.00 0.00 0.00 68 1062.1
20260507135215 13 337 4.8 0.0 0.00 0.00 0.00 68 1062.2
20260507135102 13 0 16.1 0.0 0.00 0.00 0.00 67 1062.2
20260507134949 13 0 8.0 0.0 0.00 0.00 0.00 67 1062.2
20260507134836 13 0 8.0 0.0 0.00 0.00 0.00 67 1062.2
20260507134733 13 0 9.7 0.0 0.00 0.00 0.00 67 1062.2
20260507134625 13 45 8.0 0.0 0.00 0.00 0.00 67 1062.1
20260507134512 13 0 29.0 0.0 0.00 0.00 0.00 67 1062.1
20260507134407 13 67 11.3 0.0 0.00 0.00 0.00 67 1062.0
20260507134256 13 45 17.7 0.0 0.00 0.00 0.00 67 1062.1
20260507134149 13 0 16.1 0.0 0.00 0.00 0.00 67 1062.1
20260507134028 13 45 11.3 0.0 0.00 0.00 0.00 66 1062.1
20260507133915 13 0 0.0 0.0 0.00 0.00 0.00 67 1062.1
20260507133801 13 337 11.3 0.0 0.00 0.00 0.00 67 1062.1
20260507133649 13 45 8.0 0.0 0.00 0.00 0.00 67 1062.1
20260507133536 13 22 14.5 0.0 0.00 0.00 0.00 67 1062.1
20260507133423 13 45 9.7 0.0 0.00 0.00 0.00 66 1062.1
20260507133317 13 22 9.7 0.0 0.00 0.00 0.00 66 1062.1
20260507133156 13 45 16.1 0.0 0.00 0.00 0.00 67 1062.1
20260507133043 13 22 9.7 0.0 0.00 0.00 0.00 66 1062.1
20260507132929 13 45 6.4 0.0 0.00 0.00 0.00 67 1062.0
20260507132808 13 45 17.7 0.0 0.00 0.00 0.00 67 1062.0
20260507132655 13 0 0.0 0.0 0.00 0.00 0.00 66 1062.0
20260507132542 13 0 0.0 0.0 0.00 0.00 0.00 67 1061.9
20260507132429 13 22 0.0 0.0 0.00 0.00 0.00 66 1062.0
20260507132309 13 22 14.5 0.0 0.00 0.00 0.00 67 1062.0
20260507132205 13 45 11.3 0.0 0.00 0.00 0.00 66 1062.0
20260507132058 13 0 9.7 0.0 0.00 0.00 0.00 66 1062.0
20260507131945 13 22 22.5 0.0 0.00 0.00 0.00 67 1062.0
20260507131840 13 112 9.7 0.0 0.00 0.00 0.00 67 1062.0
20260507131727 13 0 9.7 0.0 0.00 0.00 0.00 66 1062.0
20260507131615 13 45 12.9 0.0 0.00 0.00 0.00 66 1062.0
20260507131509 13 22 12.9 0.0 0.00 0.00 0.00 66 1061.9
20260507131355 13 22 6.4 0.0 0.00 0.00 0.00 66 1062.0
20260507131242 13 0 11.3 0.0 0.00 0.00 0.00 66 1062.0
20260507131137 14 0 9.7 0.0 0.00 0.00 0.00 66 1062.0
20260507131008 14 45 14.5 0.0 0.00 0.00 0.00 65 1062.0
20260507130855 14 337 9.7 0.0 0.00 0.00 0.00 65 1062.0
20260507130750 14 22 17.7 0.0 0.00 0.00 0.00 65 1062.0
20260507130636 14 22 11.3 0.0 0.00 0.00 0.00 66 1062.1
20260507130523 14 315 4.8 0.0 0.00 0.00 0.00 66 1062.0
20260507130410 14 0 9.7 0.0 0.00 0.00 0.00 66 1062.0
20260507130248 14 22 0.0 0.0 0.00 0.00 0.00 66 1062.0
20260507130129 14 45 14.5 0.0 0.00 0.00 0.00 66 1061.9
20260507130018 14 45 16.1 0.0 0.00 0.00 0.00 66 1061.9
20260507125909 14 45 0.0 0.0 0.00 0.00 0.00 66 1061.9
20260507125805 14 45 9.7 0.0 0.00 0.00 0.00 66 1061.9
20260507125659 14 67 14.5 0.0 0.00 0.00 0.00 66 1061.9
20260507125546 14 0 1.6 0.0 0.00 0.00 0.00 66 1061.9
20260507125433 13 67 17.7 0.0 0.00 0.00 0.00 65 1061.8
20260507125320 14 22 8.0 0.0 0.00 0.00 0.00 64 1061.8
20260507125215 14 22 9.7 0.0 0.00 0.00 0.00 64 1061.9
20260507125101 14 22 11.3 0.0 0.00 0.00 0.00 65 1061.8
20260507124948 14 45 0.0 0.0 0.00 0.00 0.00 65 1061.9
20260507124826 14 0 0.0 0.0 0.00 0.00 0.00 64 1061.8
20260507124713 14 0 14.5 0.0 0.00 0.00 0.00 64 1061.8
20260507124609 14 22 16.1 0.0 0.00 0.00 0.00 63 1061.9
20260507124503 14 22 4.8 0.0 0.00 0.00 0.00 63 1061.8
20260507124358 14 337 8.0 0.0 0.00 0.00 0.00 64 1061.9
20260507124245 14 0 9.7 0.0 0.00 0.00 0.00 64 1061.9
20260507124142 14 22 0.0 0.0 0.00 0.00 0.00 64 1061.9
20260507124034 14 22 16.1 0.0 0.00 0.00 0.00 63 1061.9
20260507123922 14 67 11.3 0.0 0.00 0.00 0.00 63 1061.9
20260507123809 15 22 8.0 0.0 0.00 0.00 0.00 62 1061.9
20260507123704 15 45 12.9 0.0 0.00 0.00 0.00 62 1061.9
20260507123551 15 45 3.2 0.0 0.00 0.00 0.00 61 1061.9
20260507123437 15 0 16.1 0.0 0.00 0.00 0.00 61 1061.9
20260507123317 15 90 0.0 0.0 0.00 0.00 0.00 61 1061.9
20260507123211 15 45 9.7 0.0 0.00 0.00 0.00 60 1061.9
20260507123050 15 0 6.4 0.0 0.00 0.00 0.00 61 1061.9
20260507122936 15 0 9.7 0.0 0.00 0.00 0.00 60 1061.8
20260507122824 15 22 0.0 0.0 0.00 0.00 0.00 59 1061.8
20260507122710 15 337 12.9 0.0 0.00 0.00 0.00 59 1061.9
20260507122557 15 22 14.5 0.0 0.00 0.00 0.00 59 1061.9
20260507122438 16 22 6.4 0.0 0.00 0.00 0.00 58 1061.9
20260507122331 16 67 12.9 0.0 0.00 0.00 0.00 58 1061.9
20260507122217 16 45 11.3 0.0 0.00 0.00 0.00 57 1061.9
20260507122105 16 337 14.5 0.0 0.00 0.00 0.00 57 1061.9
20260507121952 16 22 8.0 0.0 0.00 0.00 0.00 57 1062.0
20260507121838 16 0 8.0 0.0 0.00 0.00 0.00 57 1061.9
20260507121725 16 0 9.7 0.0 0.00 0.00 0.00 57 1061.9
20260507121619 16 0 11.3 0.0 0.00 0.00 0.00 57 1061.9
20260507121458 16 45 6.4 0.0 0.00 0.00 0.00 56 1062.0
20260507121346 16 0 11.3 0.0 0.00 0.00 0.00 58 1061.9
20260507121233 16 0 0.0 0.0 0.00 0.00 0.00 57 1061.9
20260507121127 16 0 9.7 0.0 0.00 0.00 0.00 57 1061.8
20260507121016 17 22 3.2 0.0 0.00 0.00 0.00 56 1061.9
20260507120909 16 45 9.7 0.0 0.00 0.00 0.00 57 1061.9
20260507120758 16 45 4.8 0.0 0.00 0.00 0.00 57 1061.8
20260507120646 17 0 9.7 0.0 0.00 0.00 0.00 56 1061.9
20260507120537 17 0 12.9 0.0 0.00 0.00 0.00 57 1061.9
20260507120425 17 45 6.4 0.0 0.00 0.00 0.00 56 1061.9
20260507120319 17 22 11.3 0.0 0.00 0.00 0.00 56 1061.9
20260507120158 17 45 8.0 0.0 0.00 0.00 0.00 55 1061.9
20260507120045 17 22 12.9 0.0 0.00 0.00 0.00 55 1061.9
20260507115932 17 67 16.1 0.0 0.00 0.00 0.00 55 1062.0
20260507115827 17 0 9.7 0.0 0.00 0.00 0.00 57 1061.9
20260507115700 17 22 8.0 0.0 0.00 0.00 0.00 57 1061.8
20260507115555 17 90 0.0 0.0 0.00 0.00 0.00 56 1061.9
20260507115446 17 45 16.1 0.0 0.00 0.00 0.00 58 1061.9
20260507115331 17 0 9.7 0.0 0.00 0.00 0.00 58 1061.9
20260507115201 17 0 16.1 0.0 0.00 0.00 0.00 58 1061.8
20260507115048 16 67 12.9 0.0 0.00 0.00 0.00 58 1061.9
20260507114943 16 112 9.7 0.0 0.00 0.00 0.00 58 1061.9
20260507114817 16 45 9.7 0.0 0.00 0.00 0.00 58 1061.9
20260507114709 16 45 11.3 0.0 0.00 0.00 0.00 58 1061.9
20260507114555 16 45 19.3 0.0 0.00 0.00 0.00 59 1061.9
20260507114436 16 0 6.4 0.0 0.00 0.00 0.00 58 1061.8
20260507114322 16 22 11.3 0.0 0.00 0.00 0.00 58 1061.8
20260507114207 16 0 16.1 0.0 0.00 0.00 0.00 58 1061.9
20260507114054 16 0 9.7 0.0 0.00 0.00 0.00 58 1061.9
20260507113933 16 22 0.0 0.0 0.00 0.00 0.00 58 1061.9
20260507113813 16 45 19.3 0.0 0.00 0.00 0.00 58 1061.8
20260507113707 16 22 6.4 0.0 0.00 0.00 0.00 59 1061.8
20260507113553 16 67 14.5 0.0 0.00 0.00 0.00 59 1061.9
20260507113434 16 22 0.0 0.0 0.00 0.00 0.00 59 1061.9
20260507113327 16 45 17.7 0.0 0.00 0.00 0.00 58 1061.9
20260507113152 16 0 9.7 0.0 0.00 0.00 0.00 59 1061.9
20260507113047 16 22 12.9 0.0 0.00 0.00 0.00 58 1061.9
20260507112940 16 0 11.3 0.0 0.00 0.00 0.00 58 1061.9
20260507112820 16 0 19.3 0.0 0.00 0.00 0.00 57 1061.9
20260507112709 16 0 8.0 0.0 0.00 0.00 0.00 59 1061.9
20260507112553 16 45 0.0 0.0 0.00 0.00 0.00 58 1061.9
20260507112424 16 337 9.7 0.0 0.00 0.00 0.00 59 1061.9
20260507112310 16 22 8.0 0.0 0.00 0.00 0.00 59 1061.8
20260507112141 16 337 19.3 0.0 0.00 0.00 0.00 60 1061.9
20260507112022 16 0 9.7 0.0 0.00 0.00 0.00 60 1061.8
20260507111915 16 67 9.7 0.0 0.00 0.00 0.00 59 1061.8
20260507111803 16 0 9.7 0.0 0.00 0.00 0.00 60 1061.8
20260507111651 16 22 0.0 0.0 0.00 0.00 0.00 59 1061.8
20260507111544 16 90 14.5 0.0 0.00 0.00 0.00 60 1061.8
20260507111431 16 22 14.5 0.0 0.00 0.00 0.00 60 1061.8
20260507111312 16 22 9.7 0.0 0.00 0.00 0.00 60 1061.8
20260507111207 16 0 0.0 0.0 0.00 0.00 0.00 61 1061.9
20260507111051 16 22 0.0 0.0 0.00 0.00 0.00 60 1061.8
20260507110938 16 67 12.9 0.0 0.00 0.00 0.00 60 1061.9
20260507110811 16 0 9.7 0.0 0.00 0.00 0.00 60 1061.8
20260507110706 16 22 16.1 0.0 0.00 0.00 0.00 61 1061.8
20260507110552 16 22 3.2 0.0 0.00 0.00 0.00 60 1061.8
20260507110447 16 45 16.1 0.0 0.00 0.00 0.00 61 1061.8
20260507110333 16 45 14.5 0.0 0.00 0.00 0.00 61 1061.8
20260507110211 16 0 6.4 0.0 0.00 0.00 0.00 60 1061.8
20260507110042 16 22 12.9 0.0 0.00 0.00 0.00 60 1061.8
20260507105929 16 45 16.1 0.0 0.00 0.00 0.00 59 1061.8
20260507105816 16 0 17.7 0.0 0.00 0.00 0.00 60 1061.8
20260507105657 16 337 4.8 0.0 0.00 0.00 0.00 60 1061.7
20260507105550 16 0 14.5 0.0 0.00 0.00 0.00 59 1061.8
20260507105438 16 45 19.3 0.0 0.00 0.00 0.00 59 1061.7
20260507105334 17 22 12.9 0.0 0.00 0.00 0.00 58 1061.8
20260507105226 17 22 9.7 0.0 0.00 0.00 0.00 57 1061.7
20260507105112 17 0 9.7 0.0 0.00 0.00 0.00 56 1061.8
20260507105006 17 0 11.3 0.0 0.00 0.00 0.00 57 1061.7
20260507104846 17 45 9.7 0.0 0.00 0.00 0.00 57 1061.8
20260507104731 17 337 0.0 0.0 0.00 0.00 0.00 57 1061.7
20260507104610 17 337 11.3 0.0 0.00 0.00 0.00 57 1061.7
20260507104449 17 0 6.4 0.0 0.00 0.00 0.00 57 1061.7
20260507104336 17 0 14.5 0.0 0.00 0.00 0.00 56 1061.7
20260507104217 18 45 19.3 0.0 0.00 0.00 0.00 56 1061.6
20260507104102 18 45 9.7 0.0 0.00 0.00 0.00 57 1061.7
20260507103940 18 337 11.3 0.0 0.00 0.00 0.00 57 1061.7
20260507103828 18 45 6.4 0.0 0.00 0.00 0.00 57 1061.7
20260507103715 18 0 3.2 0.0 0.00 0.00 0.00 57 1061.7
20260507103601 18 315 0.0 0.0 0.00 0.00 0.00 57 1061.6
20260507103440 17 0 6.4 0.0 0.00 0.00 0.00 58 1061.7
20260507103318 17 22 8.0 0.0 0.00 0.00 0.00 57 1061.8
20260507103149 17 45 8.0 0.0 0.00 0.00 0.00 57 1061.7
20260507103036 17 90 8.0 0.0 0.00 0.00 0.00 59 1061.7
20260507102930 17 45 6.4 0.0 0.00 0.00 0.00 59 1061.7
20260507102804 17 22 6.4 0.0 0.00 0.00 0.00 58 1061.7
20260507102656 17 0 3.2 0.0 0.00 0.00 0.00 58 1061.7
20260507102546 17 45 6.4 0.0 0.00 0.00 0.00 59 1061.6
20260507102438 16 0 4.8 0.0 0.00 0.00 0.00 58 1061.7
20260507102317 16 67 9.7 0.0 0.00 0.00 0.00 57 1061.7
20260507102204 17 22 14.5 0.0 0.00 0.00 0.00 58 1061.6
20260507102052 17 22 8.0 0.0 0.00 0.00 0.00 58 1061.6
20260507101947 17 67 9.7 0.0 0.00 0.00 0.00 59 1061.6
20260507101842 17 45 17.7 0.0 0.00 0.00 0.00 59 1061.5
20260507101729 17 0 0.0 0.0 0.00 0.00 0.00 58 1061.6
20260507101615 17 45 12.9 0.0 0.00 0.00 0.00 57 1061.6
20260507101501 17 22 16.1 0.0 0.00 0.00 0.00 58 1061.6
20260507101349 17 22 14.5 0.0 0.00 0.00 0.00 58 1061.6
20260507101237 17 45 9.7 0.0 0.00 0.00 0.00 58 1061.5
20260507101124 17 0 6.4 0.0 0.00 0.00 0.00 58 1061.5
20260507101018 17 45 0.0 0.0 0.00 0.00 0.00 58 1061.4
20260507100906 17 0 8.0 0.0 0.00 0.00 0.00 57 1061.5
20260507100800 17 22 8.0 0.0 0.00 0.00 0.00 57 1061.5
20260507100647 17 90 9.7 0.0 0.00 0.00 0.00 57 1061.5
20260507100543 17 0 12.9 0.0 0.00 0.00 0.00 58 1061.5
20260507100436 17 22 0.0 0.0 0.00 0.00 0.00 57 1061.4
20260507100259 17 0 9.7 0.0 0.00 0.00 0.00 57 1061.5
20260507100153 17 22 6.4 0.0 0.00 0.00 0.00 56 1061.5
20260507100034 17 22 14.5 0.0 0.00 0.00 0.00 57 1061.4
20260507095927 17 22 17.7 0.0 0.00 0.00 0.00 57 1061.4
20260507095805 17 22 0.0 0.0 0.00 0.00 0.00 56 1061.4
20260507095638 17 45 17.7 0.0 0.00 0.00 0.00 56 1061.4
20260507095533 17 0 6.4 0.0 0.00 0.00 0.00 56 1061.4
20260507095421 18 45 12.9 0.0 0.00 0.00 0.00 56 1061.4
20260507095316 18 45 11.3 0.0 0.00 0.00 0.00 56 1061.4
20260507095152 18 22 12.9 0.0 0.00 0.00 0.00 57 1061.3
20260507095031 17 45 0.0 0.0 0.00 0.00 0.00 56 1061.3
20260507094926 18 337 8.0 0.0 0.00 0.00 0.00 56 1061.4
20260507094805 18 0 8.0 0.0 0.00 0.00 0.00 55 1061.3
20260507094645 18 45 12.9 0.0 0.00 0.00 0.00 56 1061.3
20260507094538 18 22 0.0 0.0 0.00 0.00 0.00 55 1061.3
20260507094418 18 90 19.3 0.0 0.00 0.00 0.00 55 1061.2
20260507094304 18 0 8.0 0.0 0.00 0.00 0.00 54 1061.4
20260507094151 18 0 9.7 0.0 0.00 0.00 0.00 56 1061.3
20260507094029 18 337 8.0 0.0 0.00 0.00 0.00 56 1061.2
20260507093908 17 22 0.0 0.0 0.00 0.00 0.00 56 1061.3
20260507093739 17 45 11.3 0.0 0.00 0.00 0.00 56 1061.3
20260507093626 17 112 14.5 0.0 0.00 0.00 0.00 56 1061.4
20260507093521 17 22 6.4 0.0 0.00 0.00 0.00 56 1061.3
20260507093359 17 45 11.3 0.0 0.00 0.00 0.00 56 1061.4
20260507093238 17 22 9.7 0.0 0.00 0.00 0.00 56 1061.3
20260507093125 18 22 4.8 0.0 0.00 0.00 0.00 55 1061.3
20260507093007 18 67 8.0 0.0 0.00 0.00 0.00 55 1061.4
20260507092859 18 67 11.3 0.0 0.00 0.00 0.00 55 1061.4
20260507092746 18 22 8.0 0.0 0.00 0.00 0.00 54 1061.3
20260507092626 18 22 11.3 0.0 0.00 0.00 0.00 53 1061.3
20260507092522 18 45 0.0 0.0 0.00 0.00 0.00 53 1061.3
20260507092415 18 67 9.7 0.0 0.00 0.00 0.00 55 1061.3
20260507092306 17 22 0.0 0.0 0.00 0.00 0.00 56 1061.2
20260507092149 17 45 0.0 0.0 0.00 0.00 0.00 55 1061.2
20260507092044 17 45 0.0 0.0 0.00 0.00 0.00 54 1061.1
20260507091932 17 90 9.7 0.0 0.00 0.00 0.00 54 1061.1
20260507091828 17 90 6.4 0.0 0.00 0.00 0.00 54 1061.1
20260507091712 17 0 6.4 0.0 0.00 0.00 0.00 54 1061.1
20260507091600 17 67 8.0 0.0 0.00 0.00 0.00 55 1061.1
20260507091454 17 22 0.0 0.0 0.00 0.00 0.00 55 1061.0
20260507091341 17 0 8.0 0.0 0.00 0.00 0.00 55 1061.1
20260507091221 17 22 4.8 0.0 0.00 0.00 0.00 55 1061.0
20260507091115 17 67 0.0 0.0 0.00 0.00 0.00 55 1061.0
20260507091002 17 45 11.3 0.0 0.00 0.00 0.00 55 1061.1
20260507090840 17 45 9.7 0.0 0.00 0.00 0.00 55 1061.1
20260507090727 17 67 0.0 0.0 0.00 0.00 0.00 54 1061.1
20260507090615 17 45 8.0 0.0 0.00 0.00 0.00 55 1061.1
20260507090502 17 0 4.8 0.0 0.00 0.00 0.00 54 1061.1
20260507090356 17 22 4.8 0.0 0.00 0.00 0.00 55 1061.0
20260507090235 17 112 11.3 0.0 0.00 0.00 0.00 55 1061.0
20260507090122 17 90 11.3 0.0 0.00 0.00 0.00 53 1061.0
20260507090008 17 45 14.5 0.0 0.00 0.00 0.00 53 1061.1
20260507085855 17 45 0.0 0.0 0.00 0.00 0.00 53 1061.0
20260507085745 17 45 12.9 0.0 0.00 0.00 0.00 55 1061.0
20260507085636 17 67 8.0 0.0 0.00 0.00 0.00 56 1061.0
20260507085517 17 67 6.4 0.0 0.00 0.00 0.00 56 1060.9
20260507085411 17 0 8.0 0.0 0.00 0.00 0.00 57 1060.9
20260507085250 17 22 0.0 0.0 0.00 0.00 0.00 56 1061.0
20260507085137 17 90 16.1 0.0 0.00 0.00 0.00 56 1060.9
20260507085023 17 90 6.4 0.0 0.00 0.00 0.00 56 1060.9
20260507084902 17 90 8.0 0.0 0.00 0.00 0.00 57 1061.0
20260507084748 17 22 11.3 0.0 0.00 0.00 0.00 57 1061.0
20260507084635 17 45 6.4 0.0 0.00 0.00 0.00 56 1060.9
20260507084521 17 45 8.0 0.0 0.00 0.00 0.00 56 1060.9
20260507084409 17 22 11.3 0.0 0.00 0.00 0.00 57 1061.0
20260507084257 17 67 0.0 0.0 0.00 0.00 0.00 57 1061.1
20260507084152 17 45 12.9 0.0 0.00 0.00 0.00 58 1060.8
20260507084044 17 67 9.7 0.0 0.00 0.00 0.00 59 1060.9
20260507083931 16 22 3.2 0.0 0.00 0.00 0.00 58 1060.9
20260507083826 16 67 14.5 0.0 0.00 0.00 0.00 58 1060.9
20260507083705 16 90 1.6 0.0 0.00 0.00 0.00 59 1060.9
20260507083552 16 90 9.7 0.0 0.00 0.00 0.00 59 1060.8
20260507083438 16 22 11.3 0.0 0.00 0.00 0.00 59 1060.8
20260507083327 16 0 6.4 0.0 0.00 0.00 0.00 59 1060.8
20260507083213 17 45 9.7 0.0 0.00 0.00 0.00 59 1060.8
20260507083100 17 22 3.2 0.0 0.00 0.00 0.00 59 1060.7
20260507082939 17 45 3.2 0.0 0.00 0.00 0.00 59 1060.8
20260507082827 17 45 9.7 0.0 0.00 0.00 0.00 60 1060.8
20260507082720 16 45 8.0 0.0 0.00 0.00 0.00 61 1060.8
20260507082608 16 45 4.8 0.0 0.00 0.00 0.00 60 1060.8
20260507082454 16 45 4.8 0.0 0.00 0.00 0.00 60 1060.8
20260507082336 16 45 11.3 0.0 0.00 0.00 0.00 61 1060.8
20260507082230 16 45 0.0 0.0 0.00 0.00 0.00 60 1060.8
20260507082123 16 22 8.0 0.0 0.00 0.00 0.00 61 1060.7
20260507082002 16 22 9.7 0.0 0.00 0.00 0.00 60 1060.7
20260507081857 16 45 11.3 0.0 0.00 0.00 0.00 61 1060.8
20260507081751 16 22 9.7 0.0 0.00 0.00 0.00 61 1060.7
20260507081622 16 90 9.7 0.0 0.00 0.00 0.00 62 1060.8
20260507081509 16 67 6.4 0.0 0.00 0.00 0.00 61 1060.8
20260507081348 16 45 6.4 0.0 0.00 0.00 0.00 60 1060.8
20260507081225 16 45 11.3 0.0 0.00 0.00 0.00 60 1060.8
20260507081108 16 22 9.7 0.0 0.00 0.00 0.00 60 1060.8
20260507081000 16 22 11.3 0.0 0.00 0.00 0.00 60 1060.8
20260507080848 16 67 8.0 0.0 0.00 0.00 0.00 59 1060.8
20260507080734 16 45 8.0 0.0 0.00 0.00 0.00 59 1060.8
20260507080615 17 67 11.3 0.0 0.00 0.00 0.00 59 1060.7
20260507080508 17 0 8.0 0.0 0.00 0.00 0.00 60 1060.8
20260507080355 16 90 0.0 0.0 0.00 0.00 0.00 61 1060.8
20260507080233 16 90 9.7 0.0 0.00 0.00 0.00 61 1060.8
20260507080120 16 90 11.3 0.0 0.00 0.00 0.00 61 1060.8
20260507080007 16 0 8.0 0.0 0.00 0.00 0.00 62 1060.8
20260507075854 16 112 11.3 0.0 0.00 0.00 0.00 63 1060.7
20260507075733 16 45 0.0 0.0 0.00 0.00 0.00 63 1060.8
20260507075620 16 45 9.7 0.0 0.00 0.00 0.00 63 1060.7
20260507075507 16 22 11.3 0.0 0.00 0.00 0.00 64 1060.7
20260507075402 16 90 8.0 0.0 0.00 0.00 0.00 64 1060.7
20260507075256 16 0 3.2 0.0 0.00 0.00 0.00 64 1060.6
20260507075135 15 45 0.0 0.0 0.00 0.00 0.00 64 1060.7
20260507075014 15 45 11.3 0.0 0.00 0.00 0.00 64 1060.7
20260507074901 15 90 11.3 0.0 0.00 0.00 0.00 65 1060.6
20260507074748 15 90 11.3 0.0 0.00 0.00 0.00 65 1060.7
20260507074634 15 67 4.8 0.0 0.00 0.00 0.00 65 1060.7
20260507074520 15 45 9.7 0.0 0.00 0.00 0.00 65 1060.6
20260507074415 15 67 8.0 0.0 0.00 0.00 0.00 65 1060.6
20260507074308 15 0 8.0 0.0 0.00 0.00 0.00 66 1060.6
20260507074148 15 22 9.7 0.0 0.00 0.00 0.00 66 1060.6
20260507074037 15 45 4.8 0.0 0.00 0.00 0.00 66 1060.6
20260507073930 15 22 3.2 0.0 0.00 0.00 0.00 68 1060.5
20260507073816 15 67 8.0 0.0 0.00 0.00 0.00 69 1060.6
20260507073646 15 45 9.7 0.0 0.00 0.00 0.00 69 1060.5
20260507073534 14 90 16.1 0.0 0.00 0.00 0.00 71 1060.5
20260507073420 14 112 9.7 0.0 0.00 0.00 0.00 71 1060.6
20260507073259 13 90 3.2 0.0 0.00 0.00 0.00 71 1060.5
20260507073146 13 45 6.4 0.0 0.00 0.00 0.00 71 1060.5
20260507073032 13 0 3.2 0.0 0.00 0.00 0.00 70 1060.6
20260507072911 13 45 0.0 0.0 0.00 0.00 0.00 70 1060.5
20260507072750 13 22 4.8 0.0 0.00 0.00 0.00 70 1060.6
20260507072629 13 45 9.7 0.0 0.00 0.00 0.00 70 1060.7
20260507072516 13 22 0.0 0.0 0.00 0.00 0.00 69 1060.6
20260507072347 13 22 9.7 0.0 0.00 0.00 0.00 69 1060.6
20260507072235 13 45 4.8 0.0 0.00 0.00 0.00 69 1060.5
20260507072129 14 22 14.5 0.0 0.00 0.00 0.00 70 1060.6
20260507072015 13 22 4.8 0.0 0.00 0.00 0.00 71 1060.5
20260507071902 13 45 9.7 0.0 0.00 0.00 0.00 71 1060.5
20260507071749 13 22 4.8 0.0 0.00 0.00 0.00 70 1060.4
20260507071636 13 0 8.0 0.0 0.00 0.00 0.00 71 1060.4
20260507071523 13 22 9.7 0.0 0.00 0.00 0.00 70 1060.4
20260507071412 13 22 6.4 0.0 0.00 0.00 0.00 70 1060.4
20260507071304 13 45 14.5 0.0 0.00 0.00 0.00 71 1060.4
20260507071151 13 45 8.0 0.0 0.00 0.00 0.00 71 1060.3
20260507071039 13 22 11.3 0.0 0.00 0.00 0.00 71 1060.4
20260507070934 13 22 9.7 0.0 0.00 0.00 0.00 70 1060.4
20260507070811 13 22 11.3 0.0 0.00 0.00 0.00 70 1060.5
20260507070652 13 45 14.5 0.0 0.00 0.00 0.00 69 1060.5
20260507070547 13 22 8.0 0.0 0.00 0.00 0.00 68 1060.5
20260507070440 14 45 6.4 0.0 0.00 0.00 0.00 68 1060.5
20260507070320 15 90 8.0 0.0 0.00 0.00 0.00 67 1060.4
20260507070200 15 22 12.9 0.0 0.00 0.00 0.00 68 1060.4
20260507070053 15 90 8.0 0.0 0.00 0.00 0.00 69 1060.4
20260507065941 15 45 9.7 0.0 0.00 0.00 0.00 69 1060.4
20260507065819 15 90 12.9 0.0 0.00 0.00 0.00 70 1060.4
20260507065706 14 67 11.3 0.0 0.00 0.00 0.00 70 1060.3
20260507065553 14 45 9.7 0.0 0.00 0.00 0.00 71 1060.3
20260507065440 13 67 0.0 0.0 0.00 0.00 0.00 71 1060.3
20260507065317 13 90 9.7 0.0 0.00 0.00 0.00 72 1060.3
20260507065204 13 22 3.2 0.0 0.00 0.00 0.00 71 1060.3
20260507065043 13 45 3.2 0.0 0.00 0.00 0.00 71 1060.3
20260507064930 13 90 17.7 0.0 0.00 0.00 0.00 73 1060.3
20260507064825 13 90 3.2 0.0 0.00 0.00 0.00 73 1060.2
20260507064712 13 112 9.7 0.0 0.00 0.00 0.00 73 1060.3
20260507064551 13 45 17.7 0.0 0.00 0.00 0.00 74 1060.3
20260507064438 13 90 12.9 0.0 0.00 0.00 0.00 75 1060.2
20260507064325 13 67 11.3 0.0 0.00 0.00 0.00 76 1060.3
20260507064205 12 90 9.7 0.0 0.00 0.00 0.00 77 1060.3
20260507064058 12 67 1.6 0.0 0.00 0.00 0.00 77 1060.3
20260507063939 12 67 8.0 0.0 0.00 0.00 0.00 77 1060.2
20260507063833 12 22 11.3 0.0 0.00 0.00 0.00 76 1060.2
20260507063726 12 22 4.8 0.0 0.00 0.00 0.00 76 1060.1
20260507063607 12 45 8.0 0.0 0.00 0.00 0.00 76 1060.2
20260507063459 12 45 11.3 0.0 0.00 0.00 0.00 76 1060.2
20260507063345 12 67 6.4 0.0 0.00 0.00 0.00 76 1060.1
20260507063232 12 22 0.0 0.0 0.00 0.00 0.00 76 1060.2
20260507063113 12 22 0.0 0.0 0.00 0.00 0.00 76 1060.1
20260507062958 12 112 12.9 0.0 0.00 0.00 0.00 77 1060.1
20260507062845 12 90 11.3 0.0 0.00 0.00 0.00 77 1060.1
20260507062724 12 67 0.0 0.0 0.00 0.00 0.00 77 1060.1
20260507062610 12 0 4.8 0.0 0.00 0.00 0.00 77 1060.0
20260507062450 12 22 9.7 0.0 0.00 0.00 0.00 77 1060.2
20260507062337 12 22 3.2 0.0 0.00 0.00 0.00 77 1060.0
20260507062229 12 45 4.8 0.0 0.00 0.00 0.00 76 1060.1
20260507062116 12 0 0.0 0.0 0.00 0.00 0.00 76 1060.1
20260507062010 12 45 9.7 0.0 0.00 0.00 0.00 76 1060.2
20260507061841 12 67 6.4 0.0 0.00 0.00 0.00 76 1060.1
20260507061727 12 90 9.7 0.0 0.00 0.00 0.00 76 1060.1
20260507061558 12 67 6.4 0.0 0.00 0.00 0.00 75 1060.0
20260507061437 12 90 4.8 0.0 0.00 0.00 0.00 75 1060.1
20260507061316 12 90 4.8 0.0 0.00 0.00 0.00 74 1060.0
20260507061204 12 45 16.1 0.0 0.00 0.00 0.00 74 1060.0
20260507061049 13 90 4.8 0.0 0.00 0.00 0.00 74 1060.0
20260507060929 13 90 12.9 0.0 0.00 0.00 0.00 74 1060.0
20260507060816 13 67 12.9 0.0 0.00 0.00 0.00 74 1060.0
20260507060710 13 90 9.7 0.0 0.00 0.00 0.00 75 1060.0
20260507060550 13 90 6.4 0.0 0.00 0.00 0.00 75 1059.9
20260507060445 13 22 0.0 0.0 0.00 0.00 0.00 75 1059.9
20260507060340 13 0 14.5 0.0 0.00 0.00 0.00 75 1059.9
20260507060226 12 45 9.7 0.0 0.00 0.00 0.00 75 1059.9
20260507060113 13 90 0.0 0.0 0.00 0.00 0.00 75 1059.9
20260507060008 13 45 9.7 0.0 0.00 0.00 0.00 74 1059.9
20260507055848 13 90 12.9 0.0 0.00 0.00 0.00 75 1059.9
20260507055742 13 67 17.7 0.0 0.00 0.00 0.00 75 1059.8
20260507055637 13 90 8.0 0.0 0.00 0.00 0.00 76 1059.8
20260507055517 12 45 4.8 0.0 0.00 0.00 0.00 76 1059.8
20260507055411 12 45 8.0 0.0 0.00 0.00 0.00 75 1059.8
20260507055306 12 45 19.3 0.0 0.00 0.00 0.00 76 1059.8
20260507055146 12 90 9.7 0.0 0.00 0.00 0.00 75 1059.8
20260507055040 12 45 14.5 0.0 0.00 0.00 0.00 75 1059.8
20260507054926 13 67 9.7 0.0 0.00 0.00 0.00 76 1059.8
20260507054813 13 45 9.7 0.0 0.00 0.00 0.00 76 1059.7
20260507054654 12 22 12.9 0.0 0.00 0.00 0.00 76 1059.7
20260507054541 12 45 6.4 0.0 0.00 0.00 0.00 77 1059.7
20260507054433 13 45 8.0 0.0 0.00 0.00 0.00 77 1059.7
20260507054320 13 45 9.7 0.0 0.00 0.00 0.00 77 1059.7
20260507054200 12 45 8.0 0.0 0.00 0.00 0.00 78 1059.6
20260507054056 12 45 0.0 0.0 0.00 0.00 0.00 79 1059.6
20260507053950 12 45 0.0 0.0 0.00 0.00 0.00 79 1059.7
20260507053835 12 22 6.4 0.0 0.00 0.00 0.00 79 1059.6
20260507053722 12 22 0.0 0.0 0.00 0.00 0.00 79 1059.7
20260507053600 12 67 12.9 0.0 0.00 0.00 0.00 80 1059.6
20260507053442 12 22 12.9 0.0 0.00 0.00 0.00 80 1059.6
20260507053335 12 22 9.7 0.0 0.00 0.00 0.00 80 1059.6
20260507053230 12 45 9.7 0.0 0.00 0.00 0.00 81 1059.6
20260507053124 12 45 8.0 0.0 0.00 0.00 0.00 81 1059.6
20260507053003 12 45 3.2 0.0 0.00 0.00 0.00 82 1059.6
20260507052842 12 22 6.4 0.0 0.00 0.00 0.00 82 1059.6
20260507052736 12 22 8.0 0.0 0.00 0.00 0.00 83 1059.6
20260507052631 12 45 14.5 0.0 0.00 0.00 0.00 84 1059.6
20260507052524 12 0 12.9 0.0 0.00 0.00 0.00 85 1059.6
20260507052419 12 22 4.8 0.0 0.00 0.00 0.00 85 1059.5
20260507052306 12 45 0.0 0.0 0.00 0.00 0.00 86 1059.5
20260507052144 11 45 3.2 0.0 0.00 0.00 0.00 86 1059.5
20260507052031 11 0 8.0 0.0 0.00 0.00 0.00 86 1059.5
20260507051912 11 45 9.7 0.0 0.00 0.00 0.00 86 1059.5
20260507051807 11 22 0.0 0.0 0.00 0.00 0.00 87 1059.5
20260507051701 11 45 4.8 0.0 0.00 0.00 0.00 87 1059.5
20260507051434 10 45 3.2 0.0 0.00 0.00 0.00 88 1059.4
20260507050945 10 45 0.0 0.0 0.00 0.00 0.00 88 1059.3
20260507050823 10 22 6.4 0.0 0.00 0.00 0.00 89 1059.3
20260507050701 10 45 0.0 0.0 0.00 0.00 0.00 89 1059.3
20260507050547 10 45 6.4 0.0 0.00 0.00 0.00 89 1059.3
20260507050440 10 22 0.0 0.0 0.00 0.00 0.00 89 1059.3
20260507050329 9 45 0.0 0.0 0.00 0.00 0.00 89 1059.3
20260507050221 9 45 0.0 0.0 0.00 0.00 0.00 89 1059.2
20260507050107 9 22 9.7 0.0 0.00 0.00 0.00 90 1059.3
20260507045952 9 22 3.2 0.0 0.00 0.00 0.00 89 1059.3
20260507045838 8 45 0.0 0.0 0.00 0.00 0.00 89 1059.3
20260507045733 8 45 0.0 0.0 0.00 0.00 0.00 89 1059.3
20260507045627 8 45 0.0 0.0 0.00 0.00 0.00 89 1059.3
20260507045511 8 45 0.0 0.0 0.00 0.00 0.00 89 1059.3
20260507045349 8 45 0.0 0.0 0.00 0.00 0.00 89 1059.2
20260507045235 8 45 0.0 0.0 0.00 0.00 0.00 89 1059.3
20260507045114 9 45 0.0 0.0 0.00 0.00 0.00 89 1059.3
20260507045009 9 45 0.0 0.0 0.00 0.00 0.00 90 1059.3
20260507044855 9 45 0.0 0.0 0.00 0.00 0.00 89 1059.3
20260507044749 9 45 0.0 0.0 0.00 0.00 0.00 89 1059.3
20260507044642 10 45 0.0 0.0 0.00 0.00 0.00 89 1059.2
20260507044536 10 45 0.0 0.0 0.00 0.00 0.00 90 1059.2
20260507044429 10 45 0.0 0.0 0.00 0.00 0.00 90 1059.2
20260507044314 10 45 4.8 0.0 0.00 0.00 0.00 90 1059.2
20260507044200 10 45 0.0 0.0 0.00 0.00 0.00 90 1059.2
20260507044047 9 45 0.0 0.0 0.00 0.00 0.00 90 1059.2
20260507043934 9 45 0.0 0.0 0.00 0.00 0.00 90 1059.2
20260507043822 9 45 0.0 0.0 0.00 0.00 0.00 90 1059.1
20260507043716 9 45 0.0 0.0 0.00 0.00 0.00 90 1059.2
20260507043611 9 45 0.0 0.0 0.00 0.00 0.00 90 1059.1
20260507043450 9 45 0.0 0.0 0.00 0.00 0.00 90 1059.2
20260507043336 9 45 0.0 0.0 0.00 0.00 0.00 91 1059.1
20260507043223 9 45 0.0 0.0 0.00 0.00 0.00 91 1059.1
20260507043110 9 45 4.8 0.0 0.00 0.00 0.00 91 1059.1
20260507042952 9 45 0.0 0.0 0.00 0.00 0.00 91 1059.0
20260507042845 9 22 0.0 0.0 0.00 0.00 0.00 91 1059.1
20260507042741 9 22 8.0 0.0 0.00 0.00 0.00 91 1059.0
20260507042634 8 45 6.4 0.0 0.00 0.00 0.00 92 1059.0
20260507042520 8 45 3.2 0.0 0.00 0.00 0.00 92 1059.0
20260507042354 8 45 0.0 0.0 0.00 0.00 0.00 92 1059.1
20260507042247 8 45 0.0 0.0 0.00 0.00 0.00 92 1059.0
20260507042134 8 45 0.0 0.0 0.00 0.00 0.00 92 1059.1
20260507042004 8 45 0.0 0.0 0.00 0.00 0.00 92 1059.0
20260507041851 8 22 0.0 0.0 0.00 0.00 0.00 91 1059.0
20260507041739 8 45 0.0 0.0 0.00 0.00 0.00 91 1058.9
20260507041633 8 22 8.0 0.0 0.00 0.00 0.00 91 1059.0
20260507041528 8 22 0.0 0.0 0.00 0.00 0.00 92 1059.0
20260507041417 8 22 9.7 0.0 0.00 0.00 0.00 91 1059.0
20260507041309 8 22 4.8 0.0 0.00 0.00 0.00 91 1059.0
20260507041149 8 0 6.4 0.0 0.00 0.00 0.00 91 1059.0
20260507041044 8 22 0.0 0.0 0.00 0.00 0.00 91 1058.9
20260507040922 8 22 6.4 0.0 0.00 0.00 0.00 91 1058.9
20260507040809 8 22 9.7 0.0 0.00 0.00 0.00 91 1058.9
20260507040656 8 45 0.0 0.0 0.00 0.00 0.00 91 1058.9
20260507040535 8 45 0.0 0.0 0.00 0.00 0.00 91 1058.8
20260507040422 8 22 1.6 0.0 0.00 0.00 0.00 91 1058.9
20260507040319 8 0 8.0 0.0 0.00 0.00 0.00 91 1058.8
20260507040212 8 22 6.4 0.0 0.00 0.00 0.00 91 1058.8
20260507040111 8 0 0.0 0.0 0.00 0.00 0.00 91 1058.8
20260507035843 8 0 6.4 0.0 0.00 0.00 0.00 91 1058.8
20260507035737 8 22 0.0 0.0 0.00 0.00 0.00 91 1058.9
20260507035525 8 45 9.7 0.0 0.00 0.00 0.00 91 1058.8
20260507035404 8 22 0.0 0.0 0.00 0.00 0.00 91 1058.8
20260507035251 8 22 9.7 0.0 0.00 0.00 0.00 91 1058.8
20260507035129 8 22 3.2 0.0 0.00 0.00 0.00 91 1058.7
20260507035017 8 22 0.0 0.0 0.00 0.00 0.00 91 1058.7
20260507034855 8 22 4.8 0.0 0.00 0.00 0.00 91 1058.8
20260507034734 8 22 8.0 0.0 0.00 0.00 0.00 91 1058.7
20260507034621 8 22 9.7 0.0 0.00 0.00 0.00 91 1058.8
20260507034516 8 22 0.0 0.0 0.00 0.00 0.00 91 1058.8
20260507034405 8 22 0.0 0.0 0.00 0.00 0.00 91 1058.7
20260507034300 7 22 3.2 0.0 0.00 0.00 0.00 91 1058.7
20260507034152 7 0 0.0 0.0 0.00 0.00 0.00 91 1058.7
20260507034032 7 0 8.0 0.0 0.00 0.00 0.00 91 1058.7
20260507033918 7 22 0.0 0.0 0.00 0.00 0.00 91 1058.7
20260507033759 7 22 0.0 0.0 0.00 0.00 0.00 91 1058.7
20260507033644 8 45 9.7 0.0 0.00 0.00 0.00 91 1058.7
20260507033531 7 0 4.8 0.0 0.00 0.00 0.00 91 1058.7
20260507033418 8 22 9.7 0.0 0.00 0.00 0.00 91 1058.7
20260507033304 8 22 9.7 0.0 0.00 0.00 0.00 91 1058.7
20260507033144 8 0 0.0 0.0 0.00 0.00 0.00 90 1058.7
20260507033030 8 45 4.8 0.0 0.00 0.00 0.00 91 1058.6
20260507032909 8 0 8.0 0.0 0.00 0.00 0.00 90 1058.5
20260507032756 8 22 6.4 0.0 0.00 0.00 0.00 90 1058.6
20260507032652 8 22 14.5 0.0 0.00 0.00 0.00 90 1058.5
20260507032546 8 22 0.0 0.0 0.00 0.00 0.00 90 1058.6
20260507032432 8 0 0.0 0.0 0.00 0.00 0.00 90 1058.7
20260507032312 8 22 11.3 0.0 0.00 0.00 0.00 90 1058.7
20260507032159 8 22 4.8 0.0 0.00 0.00 0.00 90 1058.7
20260507032054 8 0 6.4 0.0 0.00 0.00 0.00 90 1058.7
20260507031949 8 0 9.7 0.0 0.00 0.00 0.00 90 1058.7
20260507031844 8 22 6.4 0.0 0.00 0.00 0.00 90 1058.6
20260507031739 8 22 9.7 0.0 0.00 0.00 0.00 90 1058.5
20260507031633 8 22 11.3 0.0 0.00 0.00 0.00 90 1058.6
20260507031513 8 22 9.7 0.0 0.00 0.00 0.00 90 1058.5
20260507031409 8 45 0.0 0.0 0.00 0.00 0.00 90 1058.5
20260507031302 8 0 8.0 0.0 0.00 0.00 0.00 90 1058.5
20260507031141 8 22 9.7 0.0 0.00 0.00 0.00 90 1058.6
20260507031036 8 22 1.6 0.0 0.00 0.00 0.00 90 1058.6
20260507030924 8 22 3.2 0.0 0.00 0.00 0.00 90 1058.7
20260507030804 8 0 8.0 0.0 0.00 0.00 0.00 90 1058.6
20260507030657 8 22 9.7 0.0 0.00 0.00 0.00 90 1058.6
20260507030552 8 22 4.8 0.0 0.00 0.00 0.00 90 1058.6
20260507030439 8 45 0.0 0.0 0.00 0.00 0.00 90 1058.5
20260507030326 8 22 8.0 0.0 0.00 0.00 0.00 90 1058.5
20260507030213 8 45 9.7 0.0 0.00 0.00 0.00 90 1058.5
20260507030100 8 0 11.3 0.0 0.00 0.00 0.00 90 1058.5
20260507025954 8 0 9.7 0.0 0.00 0.00 0.00 90 1058.4
20260507025841 8 0 11.3 0.0 0.00 0.00 0.00 89 1058.5
20260507025735 8 0 0.0 0.0 0.00 0.00 0.00 89 1058.4
20260507025629 8 0 8.0 0.0 0.00 0.00 0.00 89 1058.4
20260507025523 8 22 14.5 0.0 0.00 0.00 0.00 89 1058.5
20260507025417 8 22 9.7 0.0 0.00 0.00 0.00 89 1058.4
20260507025312 8 22 6.4 0.0 0.00 0.00 0.00 89 1058.4
20260507025204 8 0 9.7 0.0 0.00 0.00 0.00 89 1058.4
20260507025050 8 22 0.0 0.0 0.00 0.00 0.00 89 1058.3
20260507024938 8 22 6.4 0.0 0.00 0.00 0.00 89 1058.4
20260507024822 8 337 6.4 0.0 0.00 0.00 0.00 89 1058.3
20260507024707 8 45 4.8 0.0 0.00 0.00 0.00 89 1058.3
20260507024547 8 0 6.4 0.0 0.00 0.00 0.00 89 1058.3
20260507024439 8 0 8.0 0.0 0.00 0.00 0.00 89 1058.3
20260507024325 8 22 9.7 0.0 0.00 0.00 0.00 89 1058.4
20260507024210 8 45 3.2 0.0 0.00 0.00 0.00 89 1058.3
20260507024050 8 0 12.9 0.0 0.00 0.00 0.00 89 1058.3
20260507023946 8 0 0.0 0.0 0.00 0.00 0.00 89 1058.4
20260507023839 8 0 0.0 0.0 0.00 0.00 0.00 89 1058.4
20260507023734 8 22 0.0 0.0 0.00 0.00 0.00 89 1058.4
20260507023628 8 22 11.3 0.0 0.00 0.00 0.00 89 1058.3
20260507023508 8 22 9.7 0.0 0.00 0.00 0.00 89 1058.4
20260507023402 8 22 9.7 0.0 0.00 0.00 0.00 89 1058.4
20260507023257 8 22 0.0 0.0 0.00 0.00 0.00 89 1058.4
20260507023136 8 45 9.7 0.0 0.00 0.00 0.00 89 1058.3
20260507023030 8 22 9.7 0.0 0.00 0.00 0.00 89 1058.4
20260507022918 8 0 6.4 0.0 0.00 0.00 0.00 89 1058.3
20260507022813 8 45 6.4 0.0 0.00 0.00 0.00 89 1058.3
20260507022700 8 67 11.3 0.0 0.00 0.00 0.00 89 1058.3
20260507022555 8 45 9.7 0.0 0.00 0.00 0.00 88 1058.3
20260507022450 8 45 16.1 0.0 0.00 0.00 0.00 88 1058.3
20260507022337 8 22 8.0 0.0 0.00 0.00 0.00 88 1058.3
20260507022233 8 22 9.7 0.0 0.00 0.00 0.00 88 1058.3
20260507022127 8 22 3.2 0.0 0.00 0.00 0.00 88 1058.2
20260507022005 8 0 3.2 0.0 0.00 0.00 0.00 88 1058.3
20260507021853 8 0 6.4 0.0 0.00 0.00 0.00 88 1058.2
20260507021739 8 0 4.8 0.0 0.00 0.00 0.00 88 1058.3
20260507021625 8 45 9.7 0.0 0.00 0.00 0.00 88 1058.2
20260507021513 8 0 9.7 0.0 0.00 0.00 0.00 88 1058.1
20260507021359 8 0 9.7 0.0 0.00 0.00 0.00 88 1058.2
20260507021246 8 22 6.4 0.0 0.00 0.00 0.00 88 1058.2
20260507021135 8 22 9.7 0.0 0.00 0.00 0.00 88 1058.1
20260507021028 8 22 8.0 0.0 0.00 0.00 0.00 88 1058.1
20260507020906 8 0 4.8 0.0 0.00 0.00 0.00 88 1058.2
20260507020746 8 0 6.4 0.0 0.00 0.00 0.00 88 1058.2
20260507020641 8 22 11.3 0.0 0.00 0.00 0.00 88 1058.1
20260507020528 8 0 9.7 0.0 0.00 0.00 0.00 88 1058.2
20260507020359 8 45 19.3 0.0 0.00 0.00 0.00 88 1058.2
20260507020245 8 22 6.4 0.0 0.00 0.00 0.00 88 1058.2
20260507020132 8 0 9.7 0.0 0.00 0.00 0.00 88 1058.3
20260507020010 8 22 0.0 0.0 0.00 0.00 0.00 88 1058.2
20260507015850 8 0 6.4 0.0 0.00 0.00 0.00 88 1058.2
20260507015745 8 22 6.4 0.0 0.00 0.00 0.00 87 1058.3
20260507015639 8 0 9.7 0.0 0.00 0.00 0.00 87 1058.2
20260507015518 8 0 9.7 0.0 0.00 0.00 0.00 87 1058.2
20260507015406 8 22 8.0 0.0 0.00 0.00 0.00 87 1058.1
20260507015301 8 337 9.7 0.0 0.00 0.00 0.00 87 1058.1
20260507015155 8 22 0.0 0.0 0.00 0.00 0.00 87 1058.0
20260507015042 8 45 6.4 0.0 0.00 0.00 0.00 87 1058.1
20260507014921 8 22 11.3 0.0 0.00 0.00 0.00 87 1058.1
20260507014800 8 22 9.7 0.0 0.00 0.00 0.00 87 1058.0
20260507014655 8 45 6.4 0.0 0.00 0.00 0.00 87 1058.1
20260507014549 8 22 4.8 0.0 0.00 0.00 0.00 87 1058.1
20260507014428 8 22 12.9 0.0 0.00 0.00 0.00 87 1058.0
20260507014315 8 22 8.0 0.0 0.00 0.00 0.00 87 1057.9
20260507014203 8 0 16.1 0.0 0.00 0.00 0.00 87 1058.1
20260507014057 8 22 6.4 0.0 0.00 0.00 0.00 86 1058.1
20260507013946 8 0 11.3 0.0 0.00 0.00 0.00 86 1058.0
20260507013839 8 45 14.5 0.0 0.00 0.00 0.00 86 1058.1
20260507013728 8 0 4.8 0.0 0.00 0.00 0.00 86 1058.1
20260507013620 8 22 0.0 0.0 0.00 0.00 0.00 86 1058.1
20260507013459 8 22 11.3 0.0 0.00 0.00 0.00 86 1058.1
20260507013346 8 22 4.8 0.0 0.00 0.00 0.00 86 1058.0
20260507013226 8 45 3.2 0.0 0.00 0.00 0.00 86 1058.0
20260507013120 8 0 12.9 0.0 0.00 0.00 0.00 86 1057.9
20260507013001 8 22 0.0 0.0 0.00 0.00 0.00 86 1058.0
20260507012853 8 0 14.5 0.0 0.00 0.00 0.00 86 1058.0
20260507012733 8 22 6.4 0.0 0.00 0.00 0.00 86 1058.0
20260507012620 8 0 8.0 0.0 0.00 0.00 0.00 86 1058.1
20260507012508 8 0 8.0 0.0 0.00 0.00 0.00 86 1058.0
20260507012353 8 0 9.7 0.0 0.00 0.00 0.00 86 1058.0
20260507012233 8 0 9.7 0.0 0.00 0.00 0.00 86 1058.0
20260507012128 8 22 11.3 0.0 0.00 0.00 0.00 86 1058.1
20260507012021 8 22 9.7 0.0 0.00 0.00 0.00 86 1058.0
20260507011853 8 0 4.8 0.0 0.00 0.00 0.00 86 1058.1
20260507011740 8 22 9.7 0.0 0.00 0.00 0.00 86 1058.0
20260507011634 8 45 8.0 0.0 0.00 0.00 0.00 86 1058.1
20260507011514 8 22 6.4 0.0 0.00 0.00 0.00 86 1058.0
20260507011400 8 22 6.4 0.0 0.00 0.00 0.00 86 1057.9
20260507011247 8 0 9.7 0.0 0.00 0.00 0.00 86 1058.0
20260507011143 8 0 3.2 0.0 0.00 0.00 0.00 86 1058.1
20260507011036 8 22 6.4 0.0 0.00 0.00 0.00 86 1057.9
20260507010917 8 0 6.4 0.0 0.00 0.00 0.00 86 1058.0
20260507010811 8 22 22.5 0.0 0.00 0.00 0.00 86 1058.0
20260507010650 8 45 8.0 0.0 0.00 0.00 0.00 86 1058.0
20260507010544 8 22 9.7 0.0 0.00 0.00 0.00 86 1058.0
20260507010423 8 45 0.0 0.0 0.00 0.00 0.00 86 1058.1
20260507010306 8 22 9.7 0.0 0.00 0.00 0.00 86 1057.9
20260507005922 8 0 6.4 0.0 0.00 0.00 0.00 85 1057.9
20260507005809 8 22 6.4 0.0 0.00 0.00 0.00 85 1057.9
20260507005650 8 45 9.7 0.0 0.00 0.00 0.00 85 1057.9
20260507005543 8 22 9.7 0.0 0.00 0.00 0.00 85 1057.9
20260507005430 8 22 8.0 0.0 0.00 0.00 0.00 85 1057.9
20260507005318 8 0 4.8 0.0 0.00 0.00 0.00 85 1057.9
20260507005204 8 22 9.7 0.0 0.00 0.00 0.00 85 1057.9
20260507005052 8 22 6.4 0.0 0.00 0.00 0.00 85 1057.9
20260507004946 8 337 4.8 0.0 0.00 0.00 0.00 85 1058.0
20260507004832 8 0 9.7 0.0 0.00 0.00 0.00 85 1057.9
20260507004719 8 0 9.7 0.0 0.00 0.00 0.00 85 1057.9
20260507004606 8 22 11.3 0.0 0.00 0.00 0.00 85 1057.9
20260507004453 8 22 8.0 0.0 0.00 0.00 0.00 85 1057.9
20260507004342 8 22 1.6 0.0 0.00 0.00 0.00 85 1057.9
20260507004235 8 22 3.2 0.0 0.00 0.00 0.00 85 1058.0
20260507004122 8 0 4.8 0.0 0.00 0.00 0.00 85 1057.9
20260507004008 8 22 4.8 0.0 0.00 0.00 0.00 85 1058.0
20260507003851 8 0 3.2 0.0 0.00 0.00 0.00 85 1058.0
20260507003743 8 45 8.0 0.0 0.00 0.00 0.00 85 1058.0
20260507003630 8 22 16.1 0.0 0.00 0.00 0.00 84 1058.0
20260507003525 8 22 8.0 0.0 0.00 0.00 0.00 85 1057.9
20260507003419 8 337 9.7 0.0 0.00 0.00 0.00 84 1057.9
20260507003250 8 0 9.7 0.0 0.00 0.00 0.00 84 1058.0
20260507003138 8 45 6.4 0.0 0.00 0.00 0.00 84 1057.9
20260507003032 8 22 9.7 0.0 0.00 0.00 0.00 84 1057.8
20260507002921 8 22 3.2 0.0 0.00 0.00 0.00 84 1057.9
20260507002757 8 0 6.4 0.0 0.00 0.00 0.00 84 1057.8
20260507002645 8 0 3.2 0.0 0.00 0.00 0.00 83 1057.7
20260507002539 8 337 11.3 0.0 0.00 0.00 0.00 83 1057.7
20260507002433 8 45 0.0 0.0 0.00 0.00 0.00 83 1057.8
20260507002327 8 22 14.5 0.0 0.00 0.00 0.00 83 1057.8
20260507002221 8 0 6.4 0.0 0.00 0.00 0.00 83 1057.7
20260507002116 8 0 12.9 0.0 0.00 0.00 0.00 83 1057.7
20260507002009 8 22 6.4 0.0 0.00 0.00 0.00 83 1057.8
20260507001903 8 45 16.1 0.0 0.00 0.00 0.00 83 1057.7
20260507001756 8 22 6.4 0.0 0.00 0.00 0.00 83 1057.7
20260507001635 8 22 0.0 0.0 0.00 0.00 0.00 83 1057.7
20260507001522 8 45 6.4 0.0 0.00 0.00 0.00 83 1057.7
20260507001414 8 22 8.0 0.0 0.00 0.00 0.00 83 1057.8
20260507001302 8 22 6.4 0.0 0.00 0.00 0.00 83 1057.6
20260507001154 8 0 9.7 0.0 0.00 0.00 0.00 83 1057.7
20260507001041 8 22 8.0 0.0 0.00 0.00 0.00 82 1057.7
20260507000921 8 45 4.8 0.0 0.00 0.00 0.00 82 1057.7
20260507000817 8 22 0.0 0.0 0.00 0.00 0.00 82 1057.7
20260507000711 8 22 4.8 0.0 0.00 0.00 0.00 82 1057.8
20260507000605 8 22 12.9 0.0 0.00 0.00 0.00 82 1057.7
20260507000452 8 22 0.0 0.0 0.00 0.00 0.00 82 1057.8
20260507000346 8 337 8.0 0.0 0.00 0.00 0.00 82 1057.7
20260507000240 8 45 9.7 0.0 0.00 0.00 0.00 82 1057.8
20260507000134 8 0 4.8 0.0 0.00 0.00 0.00 82 1057.8
20260507000028 8 0 9.7 0.0 0.00 0.00 0.00 82 1057.8
20260506235915 8 45 9.7 0.0 0.00 0.00 0.00 81 1057.8
20260506235801 8 45 9.7 0.0 0.00 0.00 0.00 81 1057.8
20260506235649 8 22 9.7 0.0 0.00 0.00 0.00 81 1057.9
20260506235536 8 0 8.0 0.0 0.00 0.00 0.00 81 1057.9
20260506235431 8 0 8.0 0.0 0.00 0.00 0.00 81 1058.0
20260506235325 8 22 22.5 0.0 0.00 0.00 0.00 81 1057.9
20260506235214 8 0 9.7 0.0 0.00 0.00 0.00 81 1058.0
20260506235107 8 0 6.4 0.0 0.00 0.00 0.00 81 1057.8
20260506234957 8 22 4.8 0.0 0.00 0.00 0.00 81 1057.8
20260506234632 8 22 3.2 0.0 0.00 0.00 0.00 81 1057.8
20260506234413 8 0 3.2 0.0 0.00 0.00 0.00 81 1057.8
20260506234300 8 22 8.0 0.0 0.00 0.00 0.00 81 1057.8
20260506234146 8 22 8.0 0.0 0.00 0.00 0.00 81 1057.9
20260506234036 8 0 4.8 0.0 0.00 0.00 0.00 81 1057.8
20260506233929 8 0 9.7 0.0 0.00 0.00 0.00 81 1057.8
20260506233824 8 0 9.7 0.0 0.00 0.00 0.00 81 1057.7
20260506233711 8 45 14.5 0.0 0.00 0.00 0.00 81 1057.8
20260506233606 8 22 4.8 0.0 0.00 0.00 0.00 81 1057.9
20260506233500 8 45 6.4 0.0 0.00 0.00 0.00 81 1057.8
20260506233341 8 0 9.7 0.0 0.00 0.00 0.00 81 1057.9
20260506233234 8 337 9.7 0.0 0.00 0.00 0.00 80 1057.7
20260506233113 8 22 4.8 0.0 0.00 0.00 0.00 80 1057.8
20260506233008 8 45 9.7 0.0 0.00 0.00 0.00 80 1057.8
20260506232854 8 22 0.0 0.0 0.00 0.00 0.00 80 1057.8
20260506232742 8 67 9.7 0.0 0.00 0.00 0.00 80 1057.8
20260506232631 8 0 3.2 0.0 0.00 0.00 0.00 80 1057.9
20260506232524 8 22 9.7 0.0 0.00 0.00 0.00 80 1057.7
20260506232411 8 0 12.9 0.0 0.00 0.00 0.00 80 1057.7
20260506232308 8 0 20.9 0.0 0.00 0.00 0.00 80 1057.9
20260506232201 8 0 9.7 0.0 0.00 0.00 0.00 80 1057.7
20260506232048 8 22 9.7 0.0 0.00 0.00 0.00 80 1057.7
20260506231928 8 22 4.8 0.0 0.00 0.00 0.00 80 1057.7
20260506231822 8 22 9.7 0.0 0.00 0.00 0.00 80 1057.7
20260506231716 8 0 14.5 0.0 0.00 0.00 0.00 80 1057.8
20260506231606 8 45 12.9 0.0 0.00 0.00 0.00 80 1057.7
20260506231458 8 22 9.7 0.0 0.00 0.00 0.00 80 1057.7
20260506231331 8 22 9.7 0.0 0.00 0.00 0.00 80 1057.7
20260506231224 8 22 8.0 0.0 0.00 0.00 0.00 80 1057.7
20260506231111 8 0 1.6 0.0 0.00 0.00 0.00 80 1057.7
20260506230959 8 337 4.8 0.0 0.00 0.00 0.00 80 1057.7
20260506230853 8 0 9.7 0.0 0.00 0.00 0.00 80 1057.7
20260506230732 8 22 9.7 0.0 0.00 0.00 0.00 80 1057.7
20260506230618 8 0 8.0 0.0 0.00 0.00 0.00 80 1057.7
20260506230459 8 22 17.7 0.0 0.00 0.00 0.00 80 1057.8
20260506230355 8 0 8.0 0.0 0.00 0.00 0.00 81 1057.7
20260506230247 8 0 0.0 0.0 0.00 0.00 0.00 81 1057.8
20260506230134 8 22 14.5 0.0 0.00 0.00 0.00 81 1057.8
20260506230031 8 22 3.2 0.0 0.00 0.00 0.00 81 1057.8
20260506225924 8 0 0.0 0.0 0.00 0.00 0.00 81 1057.8
20260506225810 8 45 8.0 0.0 0.00 0.00 0.00 81 1057.8
20260506225641 8 0 11.3 0.0 0.00 0.00 0.00 81 1057.8
20260506225519 8 0 17.7 0.0 0.00 0.00 0.00 81 1057.8
20260506225358 8 45 6.4 0.0 0.00 0.00 0.00 81 1057.8
20260506225250 8 22 9.7 0.0 0.00 0.00 0.00 81 1057.8
20260506225138 8 45 11.3 0.0 0.00 0.00 0.00 82 1057.8
20260506225024 8 45 9.7 0.0 0.00 0.00 0.00 82 1057.8
20260506224902 8 0 6.4 0.0 0.00 0.00 0.00 82 1057.8
20260506224749 8 337 12.9 0.0 0.00 0.00 0.00 82 1057.9
20260506224643 8 0 9.7 0.0 0.00 0.00 0.00 82 1057.8
20260506224524 8 22 0.0 0.0 0.00 0.00 0.00 82 1057.8
20260506224409 8 22 6.4 0.0 0.00 0.00 0.00 82 1057.8
20260506224255 8 45 12.9 0.0 0.00 0.00 0.00 82 1057.8
20260506224142 8 45 4.8 0.0 0.00 0.00 0.00 82 1057.8
20260506224028 8 0 8.0 0.0 0.00 0.00 0.00 82 1057.8
20260506223859 8 45 14.5 0.0 0.00 0.00 0.00 82 1057.8
20260506223738 8 22 11.3 0.0 0.00 0.00 0.00 82 1057.7
20260506223625 8 0 6.4 0.0 0.00 0.00 0.00 82 1057.7
20260506223521 8 22 8.0 0.0 0.00 0.00 0.00 82 1057.7
20260506223406 8 22 6.4 0.0 0.00 0.00 0.00 82 1057.7
20260506223248 8 0 8.0 0.0 0.00 0.00 0.00 82 1057.7
20260506223143 8 22 9.7 0.0 0.00 0.00 0.00 82 1057.7
20260506223035 8 22 4.8 0.0 0.00 0.00 0.00 82 1057.7
20260506222914 8 0 9.7 0.0 0.00 0.00 0.00 82 1057.7
20260506222753 8 45 4.8 0.0 0.00 0.00 0.00 82 1057.7
20260506222639 8 45 6.4 0.0 0.00 0.00 0.00 82 1057.7
20260506222521 8 22 8.0 0.0 0.00 0.00 0.00 82 1057.7
20260506222416 8 22 6.4 0.0 0.00 0.00 0.00 82 1057.7
20260506222306 8 0 8.0 0.0 0.00 0.00 0.00 82 1057.7
20260506222154 8 0 12.9 0.0 0.00 0.00 0.00 82 1057.7
20260506222039 8 45 11.3 0.0 0.00 0.00 0.00 82 1057.7
20260506221919 8 45 11.3 0.0 0.00 0.00 0.00 83 1057.7
20260506221814 8 22 9.7 0.0 0.00 0.00 0.00 83 1057.7
20260506221657 7 45 3.2 0.0 0.00 0.00 0.00 83 1057.7
20260506221545 7 22 9.7 0.0 0.00 0.00 0.00 83 1057.6
20260506221438 7 22 11.3 0.0 0.00 0.00 0.00 83 1057.7
20260506221318 7 0 6.4 0.0 0.00 0.00 0.00 83 1057.7
20260506221204 7 22 8.0 0.0 0.00 0.00 0.00 83 1057.6
20260506221051 7 22 11.3 0.0 0.00 0.00 0.00 83 1057.7
20260506220922 7 22 6.4 0.0 0.00 0.00 0.00 83 1057.6
20260506220809 7 45 4.8 0.0 0.00 0.00 0.00 83 1057.6
20260506220647 7 22 9.7 0.0 0.00 0.00 0.00 82 1057.6
20260506220521 7 45 12.9 0.0 0.00 0.00 0.00 82 1057.7
20260506220413 7 22 6.4 0.0 0.00 0.00 0.00 82 1057.7
20260506220254 7 67 8.0 0.0 0.00 0.00 0.00 82 1057.7
20260506220147 7 45 11.3 0.0 0.00 0.00 0.00 82 1057.7
20260506220033 7 90 9.7 0.0 0.00 0.00 0.00 82 1057.7
20260506215913 7 45 8.0 0.0 0.00 0.00 0.00 82 1057.7
20260506215759 7 22 6.4 0.0 0.00 0.00 0.00 81 1057.7
20260506215647 7 22 8.0 0.0 0.00 0.00 0.00 81 1057.6
20260506215541 7 0 12.9 0.0 0.00 0.00 0.00 81 1057.7
20260506215420 7 22 6.4 0.0 0.00 0.00 0.00 81 1057.7
20260506215259 7 22 6.4 0.0 0.00 0.00 0.00 81 1057.7
20260506215154 7 45 11.3 0.0 0.00 0.00 0.00 82 1057.6
20260506215041 7 0 8.0 0.0 0.00 0.00 0.00 81 1057.7
20260506214919 7 0 0.0 0.0 0.00 0.00 0.00 81 1057.6
20260506214805 7 45 4.8 0.0 0.00 0.00 0.00 81 1057.6
20260506214645 7 22 4.8 0.0 0.00 0.00 0.00 81 1057.7
20260506214534 7 22 9.7 0.0 0.00 0.00 0.00 81 1057.6
20260506214427 7 22 4.8 0.0 0.00 0.00 0.00 81 1057.6
20260506214257 7 22 9.7 0.0 0.00 0.00 0.00 81 1057.6
20260506214136 7 45 3.2 0.0 0.00 0.00 0.00 81 1057.6
20260506214007 7 90 9.7 0.0 0.00 0.00 0.00 81 1057.6
20260506213854 7 22 12.9 0.0 0.00 0.00 0.00 81 1057.6
20260506213740 7 45 8.0 0.0 0.00 0.00 0.00 81 1057.6
20260506213619 7 45 4.8 0.0 0.00 0.00 0.00 82 1057.6
20260506213458 7 45 9.7 0.0 0.00 0.00 0.00 81 1057.6
20260506213340 7 22 6.4 0.0 0.00 0.00 0.00 82 1057.6
20260506213234 7 0 14.5 0.0 0.00 0.00 0.00 82 1057.5
20260506213129 7 22 0.0 0.0 0.00 0.00 0.00 82 1057.6
20260506213015 7 45 8.0 0.0 0.00 0.00 0.00 81 1057.6
20260506212909 7 22 8.0 0.0 0.00 0.00 0.00 81 1057.7
20260506212804 7 22 0.0 0.0 0.00 0.00 0.00 81 1057.6
20260506212651 8 22 6.4 0.0 0.00 0.00 0.00 81 1057.6
20260506212531 8 45 4.8 0.0 0.00 0.00 0.00 81 1057.5
20260506212427 8 22 9.7 0.0 0.00 0.00 0.00 81 1057.6
20260506212319 8 22 8.0 0.0 0.00 0.00 0.00 82 1057.6
20260506212207 8 0 8.0 0.0 0.00 0.00 0.00 82 1057.5
20260506212046 8 0 6.4 0.0 0.00 0.00 0.00 81 1057.5
20260506211932 8 0 9.7 0.0 0.00 0.00 0.00 81 1057.4
20260506211819 8 0 0.0 0.0 0.00 0.00 0.00 81 1057.4
20260506211715 8 22 8.0 0.0 0.00 0.00 0.00 81 1057.4
20260506211609 8 67 6.4 0.0 0.00 0.00 0.00 81 1057.4
20260506211447 8 45 3.2 0.0 0.00 0.00 0.00 81 1057.4
20260506211327 8 45 6.4 0.0 0.00 0.00 0.00 81 1057.4
20260506211212 8 0 9.7 0.0 0.00 0.00 0.00 81 1057.4
20260506211052 8 22 9.7 0.0 0.00 0.00 0.00 81 1057.4
20260506210939 8 0 11.3 0.0 0.00 0.00 0.00 81 1057.3
20260506210817 8 337 9.7 0.0 0.00 0.00 0.00 81 1057.3
20260506210656 8 22 3.2 0.0 0.00 0.00 0.00 81 1057.4
20260506210535 8 337 11.3 0.0 0.00 0.00 0.00 81 1057.4
20260506210413 8 0 6.4 0.0 0.00 0.00 0.00 80 1057.4
20260506210252 8 22 9.7 0.0 0.00 0.00 0.00 80 1057.4
20260506210131 8 22 11.3 0.0 0.00 0.00 0.00 80 1057.4
20260506210002 8 22 3.2 0.0 0.00 0.00 0.00 80 1057.3
20260506205851 8 22 8.0 0.0 0.00 0.00 0.00 80 1057.4
20260506205745 8 22 9.7 0.0 0.00 0.00 0.00 80 1057.3
20260506205641 8 22 8.0 0.0 0.00 0.00 0.00 80 1057.3
20260506205534 8 22 6.4 0.0 0.00 0.00 0.00 80 1057.3
20260506205423 8 0 9.7 0.0 0.00 0.00 0.00 80 1057.3
20260506205318 8 45 9.7 0.0 0.00 0.00 0.00 80 1057.3
20260506205155 8 22 9.7 0.0 0.00 0.00 0.00 80 1057.3
20260506205041 8 45 14.5 0.0 0.00 0.00 0.00 80 1057.3
20260506204921 8 22 6.4 0.0 0.00 0.00 0.00 80 1057.3
20260506204817 8 22 12.9 0.0 0.00 0.00 0.00 80 1057.3
20260506204706 8 22 12.9 0.0 0.00 0.00 0.00 80 1057.4
20260506204550 8 0 6.4 0.0 0.00 0.00 0.00 80 1057.3
20260506204444 8 0 14.5 0.0 0.00 0.00 0.00 80 1057.3
20260506204339 8 0 9.7 0.0 0.00 0.00 0.00 80 1057.3
20260506204218 8 22 9.7 0.0 0.00 0.00 0.00 80 1057.3
20260506204057 8 0 8.0 0.0 0.00 0.00 0.00 80 1057.3
20260506203952 8 22 14.5 0.0 0.00 0.00 0.00 80 1057.4
20260506203831 8 0 9.7 0.0 0.00 0.00 0.00 80 1057.4
20260506203719 8 22 16.1 0.0 0.00 0.00 0.00 80 1057.4
20260506203612 8 0 8.0 0.0 0.00 0.00 0.00 80 1057.4
20260506203459 8 45 6.4 0.0 0.00 0.00 0.00 80 1057.4
20260506203354 8 0 12.9 0.0 0.00 0.00 0.00 80 1057.4
20260506203232 8 0 11.3 0.0 0.00 0.00 0.00 80 1057.4
20260506203113 8 22 19.3 0.0 0.00 0.00 0.00 80 1057.4
20260506202942 8 22 17.7 0.0 0.00 0.00 0.00 81 1057.3
20260506202829 8 0 6.4 0.0 0.00 0.00 0.00 81 1057.3
20260506202708 8 0 12.9 0.0 0.00 0.00 0.00 81 1057.4
20260506202555 8 45 22.5 0.0 0.00 0.00 0.00 80 1057.3
20260506202441 8 0 14.5 0.0 0.00 0.00 0.00 80 1057.2
20260506202323 8 22 17.7 0.0 0.00 0.00 0.00 80 1057.3
20260506202215 8 22 3.2 0.0 0.00 0.00 0.00 80 1057.3
20260506202054 8 0 14.5 0.0 0.00 0.00 0.00 80 1057.2
20260506201932 8 337 16.1 0.0 0.00 0.00 0.00 81 1057.2
20260506201811 8 22 4.8 0.0 0.00 0.00 0.00 81 1057.2
20260506201650 8 45 11.3 0.0 0.00 0.00 0.00 81 1057.3
20260506201529 8 0 11.3 0.0 0.00 0.00 0.00 81 1057.3
20260506201424 8 45 6.4 0.0 0.00 0.00 0.00 81 1057.3
20260506201310 8 45 4.8 0.0 0.00 0.00 0.00 81 1057.3
20260506201151 8 0 6.4 0.0 0.00 0.00 0.00 81 1057.3
20260506201044 8 0 4.8 0.0 0.00 0.00 0.00 80 1057.3
20260506200923 8 22 11.3 0.0 0.00 0.00 0.00 80 1057.3
20260506200811 8 22 12.9 0.0 0.00 0.00 0.00 81 1057.3
20260506200658 8 22 6.4 0.0 0.00 0.00 0.00 81 1057.3
20260506200536 8 22 22.5 0.0 0.00 0.00 0.00 81 1057.3
20260506200415 8 22 9.7 0.0 0.00 0.00 0.00 81 1057.3
20260506200311 8 45 12.9 0.0 0.00 0.00 0.00 81 1057.2
20260506200205 8 22 6.4 0.0 0.00 0.00 0.00 81 1057.2
20260506200052 8 22 16.1 0.0 0.00 0.00 0.00 81 1057.2
20260506195941 8 337 11.3 0.0 0.00 0.00 0.00 81 1057.2
20260506195833 8 22 9.7 0.0 0.00 0.00 0.00 82 1057.2
20260506195720 8 315 11.3 0.0 0.00 0.00 0.00 82 1057.3
20260506195558 8 0 0.0 0.0 0.00 0.00 0.00 82 1057.2
20260506195429 8 22 9.7 0.0 0.00 0.00 0.00 82 1057.3
20260506195316 8 22 8.0 0.0 0.00 0.00 0.00 82 1057.2
20260506195147 8 22 11.3 0.0 0.00 0.00 0.00 82 1057.2
20260506195034 8 67 8.0 0.0 0.00 0.00 0.00 82 1057.2
20260506194920 8 22 19.3 0.0 0.00 0.00 0.00 82 1057.2
20260506194802 8 22 25.7 0.0 0.00 0.00 0.00 82 1057.2
20260506194654 8 0 8.0 0.0 0.00 0.00 0.00 82 1057.2
20260506194541 8 0 11.3 0.0 0.00 0.00 0.00 83 1057.2
20260506194412 8 22 19.3 0.0 0.00 0.00 0.00 83 1057.1
20260506194258 8 0 9.7 0.0 0.00 0.00 0.00 83 1057.2
20260506194130 8 67 19.3 0.0 0.00 0.00 0.00 83 1057.2
20260506194025 8 45 16.1 0.0 0.00 0.00 0.00 83 1057.2
20260506193911 8 0 17.7 0.0 0.00 0.00 0.00 83 1057.2
20260506193744 8 22 9.7 0.0 0.00 0.00 0.00 83 1057.1
20260506193638 8 45 14.5 0.0 0.00 0.00 0.00 83 1057.2
20260506193534 8 45 11.3 0.0 0.00 0.00 0.00 83 1057.1
20260506193427 8 0 12.9 0.0 0.00 0.00 0.00 82 1057.2
20260506193313 8 45 11.3 0.0 0.00 0.00 0.00 82 1057.1
20260506193152 8 0 8.0 0.0 0.00 0.00 0.00 82 1057.1
20260506193031 8 22 4.8 0.0 0.00 0.00 0.00 83 1057.1
20260506192926 8 22 17.7 0.0 0.00 0.00 0.00 83 1057.1
20260506192815 8 0 14.5 0.0 0.00 0.00 0.00 83 1057.1
20260506192708 8 45 25.7 0.0 0.00 0.00 0.00 83 1057.1
20260506192555 8 0 9.7 0.0 0.00 0.00 0.00 82 1057.1
20260506192449 8 337 14.5 0.0 0.00 0.00 0.00 82 1057.0
20260506192336 8 0 6.4 0.0 0.00 0.00 0.00 82 1057.0
20260506192222 8 0 9.7 0.0 0.00 0.00 0.00 81 1057.0
20260506192053 8 22 4.8 0.0 0.00 0.00 0.00 81 1057.0
20260506191934 8 45 11.3 0.0 0.00 0.00 0.00 81 1057.0
20260506191819 8 45 6.4 0.0 0.00 0.00 0.00 81 1057.0
20260506191706 8 22 24.1 0.0 0.00 0.00 0.00 81 1056.9
20260506191553 8 22 9.7 0.0 0.00 0.00 0.00 81 1056.9
20260506191433 8 90 11.3 0.0 0.00 0.00 0.00 81 1056.9
20260506191318 8 22 14.5 0.0 0.00 0.00 0.00 81 1056.9
20260506191206 8 45 9.7 0.0 0.00 0.00 0.00 80 1056.9
20260506191100 8 22 20.9 0.0 0.00 0.00 0.00 80 1056.9
20260506190946 9 0 16.1 0.0 0.00 0.00 0.00 81 1056.9
20260506190828 9 0 11.3 0.0 0.00 0.00 0.00 80 1056.9
20260506190724 9 22 9.7 0.0 0.00 0.00 0.00 80 1056.8
20260506190616 9 22 14.5 0.0 0.00 0.00 0.00 80 1056.9
20260506190504 9 0 9.7 0.0 0.00 0.00 0.00 80 1056.8
20260506190358 9 45 9.7 0.0 0.00 0.00 0.00 79 1056.9
20260506190239 9 22 9.7 0.0 0.00 0.00 0.00 79 1056.8
20260506190126 9 22 9.7 0.0 0.00 0.00 0.00 79 1056.7
20260506190019 9 22 19.3 0.0 0.00 0.00 0.00 79 1056.7
20260506185906 9 22 12.9 0.0 0.00 0.00 0.00 78 1056.7
20260506185752 9 0 9.7 0.0 0.00 0.00 0.00 78 1056.7
20260506185631 10 337 9.7 0.0 0.00 0.00 0.00 78 1056.6
20260506185509 10 45 9.7 0.0 0.00 0.00 0.00 78 1056.6
20260506185348 10 0 9.7 0.0 0.00 0.00 0.00 78 1056.5
20260506185234 10 22 12.9 0.0 0.00 0.00 0.00 78 1056.5
20260506185129 10 0 12.9 0.0 0.00 0.00 0.00 77 1056.5
20260506185023 10 337 6.4 0.0 0.00 0.00 0.00 77 1056.5
20260506184909 10 0 8.0 0.0 0.00 0.00 0.00 77 1056.5
20260506184746 10 22 12.9 0.0 0.00 0.00 0.00 76 1056.4
20260506184634 10 22 14.5 0.0 0.00 0.00 0.00 76 1056.5
20260506184526 10 67 6.4 0.0 0.00 0.00 0.00 76 1056.5
20260506184421 10 0 14.5 0.0 0.00 0.00 0.00 76 1056.5
20260506184314 10 45 16.1 0.0 0.00 0.00 0.00 76 1056.5
20260506184209 10 0 6.4 0.0 0.00 0.00 0.00 76 1056.5
20260506184103 10 337 14.5 0.0 0.00 0.00 0.00 75 1056.6
20260506183943 10 22 11.3 0.0 0.00 0.00 0.00 75 1056.5
20260506183838 10 22 8.0 0.0 0.00 0.00 0.00 76 1056.4
20260506183732 10 45 11.3 0.0 0.00 0.00 0.00 75 1056.4
20260506183610 10 0 9.7 0.0 0.00 0.00 0.00 75 1056.4
20260506183449 10 0 9.7 0.0 0.00 0.00 0.00 75 1056.5
20260506183336 10 0 9.7 0.0 0.00 0.00 0.00 75 1056.5
20260506183215 10 22 8.0 0.0 0.00 0.00 0.00 75 1056.5
20260506183054 10 45 9.7 0.0 0.00 0.00 0.00 75 1056.5
20260506182940 11 337 9.7 0.0 0.00 0.00 0.00 75 1056.5
20260506182829 11 0 9.7 0.0 0.00 0.00 0.00 74 1056.4
20260506182725 10 22 25.7 0.0 0.00 0.00 0.00 74 1056.3
20260506182617 11 45 14.5 0.0 0.00 0.00 0.00 74 1056.4
20260506182506 11 0 30.6 0.0 0.00 0.00 0.00 73 1056.4
20260506182353 11 22 25.7 0.0 0.00 0.00 0.00 72 1056.3
20260506182247 11 0 12.9 0.0 0.00 0.00 0.00 73 1056.3
20260506182141 11 292 16.1 0.0 0.00 0.00 0.00 73 1056.2
20260506182027 11 22 8.0 0.0 0.00 0.00 0.00 73 1056.3
20260506181908 11 45 8.0 0.0 0.00 0.00 0.00 73 1056.2
20260506181801 11 0 17.7 0.0 0.00 0.00 0.00 73 1056.2
20260506181640 11 22 9.7 0.0 0.00 0.00 0.00 73 1056.2
20260506181527 11 337 9.7 0.0 0.00 0.00 0.00 73 1056.2
20260506181408 11 22 19.3 0.0 0.00 0.00 0.00 73 1056.2
20260506181301 11 0 8.0 0.0 0.00 0.00 0.00 73 1056.2
20260506181148 11 0 16.1 0.0 0.00 0.00 0.00 73 1056.1
20260506181029 11 45 8.0 0.0 0.00 0.00 0.00 73 1056.2
20260506180924 11 67 9.7 0.0 0.00 0.00 0.00 73 1056.1
20260506180817 11 0 17.7 0.0 0.00 0.00 0.00 74 1056.1
20260506180655 11 67 19.3 0.0 0.00 0.00 0.00 74 1056.1
20260506180542 11 22 11.3 0.0 0.00 0.00 0.00 74 1056.1
20260506180429 11 0 29.0 0.0 0.00 0.00 0.00 74 1056.0
20260506180307 11 22 20.9 0.0 0.00 0.00 0.00 74 1056.1
20260506180148 11 0 17.7 0.0 0.00 0.00 0.00 74 1056.1
20260506180044 11 22 17.7 0.0 0.00 0.00 0.00 74 1056.1
20260506175939 11 0 14.5 0.0 0.00 0.00 0.00 74 1056.1
20260506175826 11 22 8.0 0.0 0.00 0.00 0.00 73 1056.1
20260506175719 11 0 11.3 0.0 0.00 0.00 0.00 73 1056.1
20260506175605 11 0 11.3 0.0 0.00 0.00 0.00 73 1056.0
20260506175435 11 337 16.1 0.0 0.00 0.00 0.00 73 1056.1
20260506175323 11 45 11.3 0.0 0.00 0.00 0.00 73 1056.1
20260506175209 11 22 14.5 0.0 0.00 0.00 0.00 73 1056.0
20260506175048 11 337 9.7 0.0 0.00 0.00 0.00 73 1056.0
20260506174935 11 337 19.3 0.0 0.00 0.00 0.00 73 1056.0
20260506174814 11 0 9.7 0.0 0.00 0.00 0.00 74 1055.9
20260506174654 11 0 0.0 0.0 0.00 0.00 0.00 74 1056.0
20260506174548 11 0 24.1 0.0 0.00 0.00 0.00 75 1056.0
20260506174443 11 0 9.7 0.0 0.00 0.00 0.00 75 1055.9
20260506174329 11 0 4.8 0.0 0.00 0.00 0.00 75 1055.9
20260506174208 11 0 6.4 0.0 0.00 0.00 0.00 75 1055.8
20260506174055 11 0 9.7 0.0 0.00 0.00 0.00 75 1055.9
20260506173941 11 22 19.3 0.0 0.00 0.00 0.00 75 1055.9
20260506173828 11 0 9.7 0.0 0.00 0.00 0.00 74 1055.8
20260506173443 11 45 27.4 0.0 0.00 0.00 0.00 75 1055.8
20260506173335 11 0 9.7 0.0 0.00 0.00 0.00 75 1055.8
20260506173222 11 0 6.4 0.0 0.00 0.00 0.00 75 1055.8
20260506173110 11 337 11.3 0.0 0.00 0.00 0.00 75 1055.8
20260506172957 11 0 12.9 0.0 0.00 0.00 0.00 75 1055.8
20260506172845 11 22 9.7 0.0 0.00 0.00 0.00 74 1055.8
20260506172738 11 45 27.4 0.0 0.00 0.00 0.00 74 1055.8
20260506172627 11 22 29.0 0.0 0.00 0.00 0.00 75 1055.8
20260506172520 11 0 14.5 0.0 0.00 0.00 0.00 75 1055.8
20260506172407 11 22 14.5 0.0 0.00 0.00 0.00 75 1055.8
20260506172306 11 45 11.3 0.0 0.00 0.00 0.00 74 1055.8
20260506172150 11 22 11.3 0.0 0.00 0.00 0.00 74 1055.8
20260506172035 11 22 9.7 0.0 0.00 0.00 0.00 74 1055.8
20260506171925 11 67 20.9 0.0 0.00 0.00 0.00 74 1055.8
20260506171820 11 22 19.3 0.0 0.00 0.00 0.00 73 1055.8
20260506171712 11 67 22.5 0.0 0.00 0.00 0.00 73 1055.8
20260506171559 11 22 11.3 0.0 0.00 0.00 0.00 73 1055.8
20260506171446 11 22 22.5 0.0 0.00 0.00 0.00 73 1055.8
20260506171332 11 0 11.3 0.0 0.00 0.00 0.00 73 1055.8
20260506171211 11 22 20.9 0.0 0.00 0.00 0.00 74 1055.8
20260506171052 11 22 16.1 0.0 0.00 0.00 0.00 74 1055.8
20260506170948 11 337 22.5 0.0 0.00 0.00 0.00 74 1055.8
20260506170841 11 337 16.1 0.0 0.00 0.00 0.00 74 1055.8
20260506170728 11 22 25.7 0.0 0.00 0.00 0.00 74 1055.8
20260506170615 11 22 12.9 0.0 0.00 0.00 0.00 74 1055.8
20260506170453 11 315 11.3 0.0 0.00 0.00 0.00 74 1055.8
20260506170341 11 22 9.7 0.0 0.00 0.00 0.00 73 1055.8
20260506170228 11 22 14.5 0.0 0.00 0.00 0.00 73 1055.8
20260506170124 11 22 25.7 0.0 0.00 0.00 0.00 72 1055.8
20260506170018 11 0 6.4 0.0 0.00 0.00 0.00 72 1055.7
20260506165904 11 0 9.7 0.0 0.00 0.00 0.00 72 1055.8
20260506165742 11 22 11.3 0.0 0.00 0.00 0.00 72 1055.8
20260506165621 11 67 22.5 0.0 0.00 0.00 0.00 72 1055.8
20260506165502 11 0 9.7 0.0 0.00 0.00 0.00 72 1055.8
20260506165356 11 45 20.9 0.0 0.00 0.00 0.00 72 1055.8
20260506165253 11 0 9.7 0.0 0.00 0.00 0.00 71 1055.8
20260506165144 11 45 17.7 0.0 0.00 0.00 0.00 71 1055.8
20260506165030 11 0 16.1 0.0 0.00 0.00 0.00 71 1055.8
20260506164923 11 0 9.7 0.0 0.00 0.00 0.00 71 1055.8
20260506164753 11 22 16.1 0.0 0.00 0.00 0.00 71 1055.8
20260506164638 11 337 11.3 0.0 0.00 0.00 0.00 71 1055.8
20260506164516 11 0 19.3 0.0 0.00 0.00 0.00 71 1055.8
20260506164405 11 0 16.1 0.0 0.00 0.00 0.00 71 1055.8
20260506164259 11 22 6.4 0.0 0.00 0.00 0.00 70 1055.8
20260506164150 11 337 12.9 0.0 0.00 0.00 0.00 70 1055.8
20260506164036 11 0 16.1 0.0 0.00 0.00 0.00 71 1055.8
20260506163932 11 45 9.7 0.0 0.00 0.00 0.00 71 1055.8
20260506163817 11 22 8.0 0.0 0.00 0.00 0.00 70 1055.8
20260506163704 11 22 14.5 0.0 0.00 0.00 0.00 70 1055.8
20260506163553 11 22 8.0 0.0 0.00 0.00 0.00 70 1055.8
20260506163447 11 337 16.1 0.0 0.00 0.00 0.00 70 1055.8
20260506163334 11 0 16.1 0.0 0.00 0.00 0.00 69 1055.8
20260506163229 12 22 9.7 0.0 0.00 0.00 0.00 68 1055.8
20260506163124 12 0 11.3 0.0 0.00 0.00 0.00 68 1055.8
20260506163010 12 45 24.1 0.0 0.00 0.00 0.00 68 1055.8
20260506162852 12 22 16.1 0.0 0.00 0.00 0.00 68 1055.8
20260506162744 12 0 9.7 0.0 0.00 0.00 0.00 68 1055.8
20260506162630 12 22 14.5 0.0 0.00 0.00 0.00 68 1055.8
20260506162510 12 22 9.7 0.0 0.00 0.00 0.00 69 1055.8
20260506162359 12 45 24.1 0.0 0.00 0.00 0.00 69 1055.8
20260506162252 12 0 24.1 0.0 0.00 0.00 0.00 70 1055.8
20260506162147 12 0 9.7 0.0 0.00 0.00 0.00 71 1055.8